M I D A S
Marine Information and Data Acquisition System
Tripno 596 of the Zeeleeuw from 2003-09-23 06:59:19 to 2003-09-23 12:19:17
Back to CruiseResearch ActivitiesStationsMapUnderway DataData graphs

EquipmentUnitsComment
TimeDGPSUTC
LatitudeDGPSDM.mWGS84
LongitudeDGPSDM.mWGS84
TemperatureSBE03/SBE38deg celciusITS90
ConductivitySBE21S/mITS90
SalinitySBE21 Practical Salinity Units
ChlorophylAChelsea fluorimeterg/lCalibrated in Aceton
Missing or incorrect values are displayed as -999
Sea surface data collected by the RV Zeeleeuw from 2003-09-23 06:59:19 to 2003-09-23 12:19:17
                                                                                    Next 1000 lines
Time Latitude Longitude Temperature Conductivity Salinity ChlorophylA
2003-09-23 06:59:29 51°13.68 2°55.79 30.762824 0.576168 3.366529 0.061486
2003-09-23 06:59:35 51°13.68 2°55.79 30.762824 0.576168 3.366529 0.061486
2003-09-23 06:59:39 51°13.68 2°55.79 30.353922 0.576064 3.365878 0.027777
2003-09-23 06:59:45 51°13.68 2°55.79 30.588204 0.576064 3.365931 0.027777
2003-09-23 06:59:49 51°13.69 2°55.79 30.289974 0.576064 3.365931 0.027777
2003-09-23 06:59:53 51°13.69 2°55.79 30.514922 0.576064 3.36609 0.027777
2003-09-23 06:59:59 51°13.7 2°55.78 29.695822 0.576064 3.366249 -0.005933
2003-09-23 07:00:03 51°13.7 2°55.78 29.695822 0.576064 3.366249 -0.005933
2003-09-23 07:00:07 51°13.71 2°55.77 30.891792 0.576064 3.366355 0.027777
2003-09-23 07:00:13 51°13.71 2°55.76 30.790626 0.576064 3.366409 0.027777
2003-09-23 07:00:19 51°13.72 2°55.75 30.883701 0.576064 3.366302 0.061486
2003-09-23 07:00:23 51°13.72 2°55.75 31.493743 0.576064 3.366302 0.061486
2003-09-23 07:00:27 51°13.73 2°55.74 30.553954 0.576064 3.366143 0.027777
2003-09-23 07:00:33 51°13.73 2°55.73 30.553954 0.576064 3.366143 0.027777
2003-09-23 07:00:39 51°13.74 2°55.72 30.320409 0.576064 3.36609 0.027777
2003-09-23 07:00:43 51°13.75 2°55.72 30.514116 0.576064 3.366037 0.027777
2003-09-23 07:00:47 51°13.75 2°55.71 30.484109 0.576064 3.365984 0.027777
2003-09-23 07:00:53 51°13.76 2°55.7 30.422447 0.576064 3.365931 0.027777
2003-09-23 07:00:59 51°13.76 2°55.69 30.448304 0.576064 3.365931 0.027777
2003-09-23 07:01:03 51°13.77 2°55.69 30.448304 0.576064 3.365931 0.027777
2003-09-23 07:01:09 51°13.78 2°55.68 30.220942 0.576064 3.365931 0.027777
2003-09-23 07:01:13 51°13.78 2°55.68 29.608265 0.576064 3.366037 0.061486
2003-09-23 07:01:17 51°13.79 2°55.67 29.726531 0.576064 3.36609 0.061486
2003-09-23 07:01:23 51°13.8 2°55.66 29.988593 0.576064 3.366143 0.061486
2003-09-23 07:01:27 51°13.8 2°55.66 30.44911 0.576064 3.366249 0.027777
2003-09-23 07:01:33 51°13.81 2°55.65 30.44911 0.576064 3.366249 0.027777
2003-09-23 07:01:39 51°13.82 2°55.65 30.274085 0.576064 3.366462 0.027777
2003-09-23 07:01:43 51°13.82 2°55.64 30.051313 0.576064 3.366568 0.061486
2003-09-23 07:01:47 51°13.83 2°55.64 29.170596 0.576064 3.366568 0.027777
2003-09-23 07:01:53 51°13.83 2°55.63 30.068554 0.576064 3.366674 0.061486
2003-09-23 07:01:59 51°13.84 2°55.63 30.813565 0.576064 3.366621 0.061486
2003-09-23 07:02:03 51°13.85 2°55.62 30.813565 0.576064 3.366621 0.061486
2003-09-23 07:02:07 51°13.85 2°55.62 30.2731 0.576064 3.366621 0.027777
2003-09-23 07:02:13 51°13.86 2°55.61 29.367762 0.575959 3.366023 0.027777
2003-09-23 07:02:19 51°13.87 2°55.61 30.703905 0.576064 3.366674 0.027777
2003-09-23 07:02:23 51°13.88 2°55.6 29.200236 0.575959 3.366076 0.061486
2003-09-23 07:02:29 51°13.88 2°55.6 30.316122 0.575959 3.366182 0.061486
2003-09-23 07:02:33 51°13.89 2°55.59 30.316122 0.575959 3.366182 0.061486
2003-09-23 07:02:39 51°13.9 2°55.59 29.556428 0.575959 3.366235 0.061486
2003-09-23 07:02:43 51°13.9 2°55.58 29.587088 0.575959 3.366288 0.061486
2003-09-23 07:02:49 51°13.91 2°55.58 30.569645 0.575959 3.366288 -0.005933
2003-09-23 07:02:53 51°13.92 2°55.57 29.79053 0.575959 3.366288 0.061486
2003-09-23 07:02:59 51°13.93 2°55.57 30.747871 0.575959 3.366341 0.027777
2003-09-23 07:03:03 51°13.93 2°55.56 30.747871 0.575959 3.366341 0.027777
2003-09-23 07:03:07 51°13.94 2°55.56 29.324945 0.575959 3.366341 0.095195
2003-09-23 07:03:13 51°13.95 2°55.55 29.998967 0.575959 3.366341 0.027777
2003-09-23 07:03:19 51°13.96 2°55.54 29.566437 0.575959 3.366394 0.061486
2003-09-23 07:03:23 51°13.96 2°55.54 28.916663 0.575959 3.366448 0.027777
2003-09-23 07:03:29 51°13.97 2°55.53 29.73634 0.575959 3.366501 0.061486
2003-09-23 07:03:33 51°13.98 2°55.53 29.73634 0.575959 3.366501 0.061486
2003-09-23 07:03:39 51°13.99 2°55.52 29.651524 0.575959 3.366554 0.027777
2003-09-23 07:03:43 51°13.99 2°55.52 29.625927 0.575959 3.36666 0.061486
2003-09-23 07:03:47 51°14 2°55.52 30.491682 0.575959 3.36666 0.027777
2003-09-23 07:03:53 51°14.01 2°55.51 30.291908 0.575959 3.366766 0.061486
2003-09-23 07:03:59 51°14.02 2°55.5 30.798063 0.575959 3.366872 0.027777
2003-09-23 07:04:03 51°14.02 2°55.5 30.798063 0.575959 3.366872 0.027777
2003-09-23 07:04:07 51°14.03 2°55.49 28.892927 0.575959 3.366925 0.061486
2003-09-23 07:04:13 51°14.04 2°55.49 29.886499 0.575855 3.366274 0.061486
2003-09-23 07:04:19 51°14.05 2°55.48 29.99925 0.575855 3.36638 0.027777
2003-09-23 07:04:23 51°14.05 2°55.48 30.060798 0.575855 3.36638 0.061486
2003-09-23 07:04:27 51°14.06 2°55.47 30.26329 0.575855 3.366433 0.027777
2003-09-23 07:04:33 51°14.07 2°55.46 30.26329 0.575855 3.366433 0.027777
2003-09-23 07:04:39 51°14.08 2°55.46 29.832943 0.575855 3.366487 0.027777
2003-09-23 07:04:43 51°14.09 2°55.45 30.177479 0.575855 3.366433 0.027777
2003-09-23 07:04:49 51°14.09 2°55.45 31.003794 0.575855 3.366593 0.061486
2003-09-23 07:04:53 51°14.1 2°55.44 30.464332 0.575855 3.366646 0.027777
2003-09-23 07:04:59 51°14.11 2°55.43 31.037321 0.575855 3.366699 0.027777
2003-09-23 07:05:03 51°14.12 2°55.43 31.037321 0.575855 3.366699 0.027777
2003-09-23 07:05:07 51°14.12 2°55.42 31.247061 0.575855 3.366699 0.027777
2003-09-23 07:05:13 51°14.13 2°55.41 29.971687 0.575855 3.366699 0.061486
2003-09-23 07:05:19 51°14.15 2°55.41 30.471662 0.575855 3.366752 0.027777
2003-09-23 07:05:23 51°14.15 2°55.4 30.750038 0.575855 3.366858 0.027777
2003-09-23 07:05:29 51°14.16 2°55.39 30.463596 0.575855 3.366911 0.027777
2003-09-23 07:05:33 51°14.17 2°55.38 30.463596 0.575855 3.366911 0.027777
2003-09-23 07:05:39 51°14.18 2°55.37 29.661945 0.575855 3.366965 0.027777
2003-09-23 07:05:43 51°14.19 2°55.36 29.826825 0.575855 3.367071 0.027777
2003-09-23 07:05:47 51°14.2 2°55.36 29.744837 0.575855 3.367124 0.061486
2003-09-23 07:05:53 51°14.21 2°55.34 29.608585 0.575855 3.367124 0.061486
2003-09-23 07:05:59 51°14.22 2°55.33 31.231995 0.575751 3.366579 0.027777
2003-09-23 07:06:03 51°14.23 2°55.32 31.231995 0.575751 3.366579 0.027777
2003-09-23 07:06:09 51°14.24 2°55.31 30.665894 0.575751 3.366632 0.061486
2003-09-23 07:06:13 51°14.24 2°55.3 30.812029 0.575751 3.366685 0.061486
2003-09-23 07:06:19 51°14.25 2°55.28 30.758213 0.575855 3.367443 0.061486
2003-09-23 07:06:23 51°14.26 2°55.27 30.081174 0.575751 3.366791 0.027777
2003-09-23 07:06:29 51°14.27 2°55.25 29.609471 0.575855 3.367496 0.027777
2003-09-23 07:06:33 51°14.28 2°55.24 29.609471 0.575855 3.367496 0.027777
2003-09-23 07:06:39 51°14.29 2°55.22 30.394019 0.575751 3.366791 -0.005933
2003-09-23 07:06:43 51°14.29 2°55.21 30.154981 0.575751 3.366791 0.027777
2003-09-23 07:06:49 51°14.3 2°55.19 30.246305 0.575751 3.366791 0.061486
2003-09-23 07:06:53 51°14.31 2°55.18 30.236808 0.575646 3.366193 0.027777
2003-09-23 07:06:59 51°14.32 2°55.16 30.507737 0.575855 3.367443 0.027777
2003-09-23 07:07:03 51°14.33 2°55.14 30.507737 0.575855 3.367443 0.027777
2003-09-23 07:07:07 51°14.33 2°55.13 30.356977 0.575751 3.366844 0.061486
2003-09-23 07:07:13 51°14.34 2°55.11 31.018279 0.575751 3.366632 0.027777
2003-09-23 07:07:19 51°14.35 2°55.09 30.473064 0.575751 3.366685 0.027777
2003-09-23 07:07:23 51°14.36 2°55.08 31.927682 0.575855 3.367124 0.027777
2003-09-23 07:07:29 51°14.37 2°55.06 30.470645 0.575646 3.36598 0.061486
2003-09-23 07:07:33 51°14.38 2°55.05 30.470645 0.575646 3.36598 0.061486
2003-09-23 07:07:39 51°14.39 2°55.03 29.740447 0.575646 3.36614 0.061486
2003-09-23 07:07:43 51°14.4 2°55.01 30.838696 0.575855 3.367443 0.027777
2003-09-23 07:07:47 51°14.4 2°55 30.147798 0.575855 3.367337 -0.005933
2003-09-23 07:07:53 51°14.41 2°54.97 30.289518 0.575751 3.366844 -0.005933
2003-09-23 07:07:59 51°14.42 2°54.95 30.090267 0.575751 3.366897 0.027777
2003-09-23 07:08:03 51°14.42 2°54.93 30.090267 0.575751 3.366897 0.027777
2003-09-23 07:08:09 51°14.43 2°54.91 30.690933 0.575751 3.36727 0.027777
2003-09-23 07:08:13 51°14.43 2°54.89 30.515728 0.575855 3.367815 0.027777
2003-09-23 07:08:19 51°14.44 2°54.87 30.46335 0.575646 3.366724 0.027777
2003-09-23 07:08:23 51°14.44 2°54.85 30.488317 0.575855 3.367921 0.027777
2003-09-23 07:08:27 51°14.44 2°54.83 30.398548 0.575751 3.367216 -0.005933
2003-09-23 07:08:33 51°14.45 2°54.81 30.398548 0.575751 3.367216 -0.005933
2003-09-23 07:08:39 51°14.45 2°54.78 31.654156 0.575855 3.367709 0.061486
2003-09-23 07:08:43 51°14.45 2°54.76 30.571571 0.575855 3.367709 0.027777
2003-09-23 07:08:49 51°14.45 2°54.73 30.716314 0.575751 3.36711 -0.005933
2003-09-23 07:08:53 51°14.45 2°54.71 30.83182 0.575751 3.367163 0.027777
2003-09-23 07:08:59 51°14.45 2°54.68 31.025729 0.575855 3.367868 -0.005933
2003-09-23 07:09:03 51°14.45 2°54.66 31.025729 0.575855 3.367868 -0.005933
2003-09-23 07:09:07 51°14.45 2°54.64 29.082535 0.575855 3.367868 0.027777
2003-09-23 07:09:11 51°14.45 2°54.62 31.339235 0.575751 3.367216 0.027777
2003-09-23 07:09:19 51°14.45 2°54.59 30.773164 0.575751 3.367535 0.061486
2003-09-23 07:09:23 51°14.44 2°54.57 30.683415 0.575855 3.368081 0.027777
2003-09-23 07:09:27 51°14.44 2°54.55 31.225918 0.575751 3.367535 0.027777
2003-09-23 07:09:33 51°14.44 2°54.52 31.225918 0.575751 3.367535 0.027777
2003-09-23 07:09:39 51°14.43 2°54.49 31.1068 0.575751 3.367323 -0.005933
2003-09-23 07:09:43 51°14.43 2°54.47 30.273206 0.575751 3.367323 0.061486
2003-09-23 07:09:47 51°14.42 2°54.45 30.427675 0.575751 3.36711 0.027777
2003-09-23 07:09:53 51°14.42 2°54.42 29.405896 0.575751 3.366951 0.027777
2003-09-23 07:09:59 51°14.41 2°54.39 30.686982 0.575751 3.366685 0.061486
2003-09-23 07:10:03 51°14.4 2°54.37 30.686982 0.575751 3.366685 0.061486
2003-09-23 07:10:09 51°14.39 2°54.34 30.227451 0.575751 3.366472 0.061486
2003-09-23 07:10:13 51°14.39 2°54.32 29.540384 0.575751 3.366366 0.027777
2003-09-23 07:10:19 51°14.38 2°54.29 29.741898 0.575751 3.366207 0.061486
2003-09-23 07:10:23 51°14.37 2°54.28 29.383772 0.575751 3.365888 0.061486
2003-09-23 07:10:27 51°14.36 2°54.26 30.289307 0.575751 3.365463 0.061486
2003-09-23 07:10:33 51°14.35 2°54.23 30.289307 0.575751 3.365463 0.061486
2003-09-23 07:10:39 51°14.34 2°54.2 30.104821 0.575751 3.365676 0.061486
2003-09-23 07:10:43 51°14.33 2°54.18 30.236632 0.575646 3.36529 0.061486
2003-09-23 07:10:49 51°14.32 2°54.15 29.935073 0.575751 3.366313 0.095195
2003-09-23 07:10:53 51°14.32 2°54.13 30.176177 0.575751 3.366579 0.061486
2003-09-23 07:10:59 51°14.31 2°54.1 29.536798 0.575751 3.367004 0.061486
2003-09-23 07:11:03 51°14.3 2°54.08 29.536798 0.575751 3.367004 0.061486
2003-09-23 07:11:09 51°14.29 2°54.05 29.608194 0.575751 3.367429 0.061486
2003-09-23 07:11:13 51°14.29 2°54.03 30.068307 0.575751 3.367323 0.095195
2003-09-23 07:11:19 51°14.28 2°54 30.587084 0.575751 3.36727 0.061486
2003-09-23 07:11:23 51°14.27 2°53.97 30.170544 0.575751 3.367216 0.095195
2003-09-23 07:11:29 51°14.26 2°53.95 29.112281 0.575646 3.366565 0.061486
2003-09-23 07:11:33 51°14.25 2°53.93 29.112281 0.575646 3.366565 0.061486
2003-09-23 07:11:39 51°14.24 2°53.9 29.750466 0.575751 3.367323 0.095195
2003-09-23 07:11:43 51°14.23 2°53.88 30.014456 0.575646 3.36699 0.061486
2003-09-23 07:11:49 51°14.22 2°53.85 29.917307 0.575751 3.367854 0.095195
2003-09-23 07:11:53 51°14.22 2°53.83 30.036925 0.575751 3.368173 0.095195
2003-09-23 07:11:59 51°14.21 2°53.8 29.88088 0.575438 3.366058 0.061486
2003-09-23 07:12:03 51°14.2 2°53.78 29.88088 0.575438 3.366058 0.061486
2003-09-23 07:12:07 51°14.19 2°53.76 29.815117 0.575646 3.367628 0.061486
2003-09-23 07:12:13 51°14.18 2°53.73 29.647448 0.575646 3.367681 0.061486
2003-09-23 07:12:19 51°14.17 2°53.7 30.208627 0.575542 3.367401 0.061486
2003-09-23 07:12:23 51°14.16 2°53.68 29.720262 0.575542 3.36788 0.061486
2003-09-23 07:12:27 51°14.15 2°53.66 30.102707 0.575542 3.368199 0.061486
2003-09-23 07:12:33 51°14.14 2°53.63 30.102707 0.575542 3.368199 0.061486
2003-09-23 07:12:39 51°14.13 2°53.59 29.34673 0.575542 3.368891 0.095195
2003-09-23 07:12:43 51°14.13 2°53.57 29.488571 0.575542 3.368998 0.095195
2003-09-23 07:12:47 51°14.12 2°53.55 30.132935 0.575542 3.368838 0.095195
2003-09-23 07:12:51 51°14.11 2°53.53 30.104011 0.575438 3.367547 0.061486
2003-09-23 07:12:59 51°14.1 2°53.48 29.812111 0.575438 3.366484 0.095195
2003-09-23 07:13:03 51°14.09 2°53.46 29.812111 0.575438 3.366484 0.095195
2003-09-23 07:13:07 51°14.08 2°53.44 30.099254 0.575542 3.365488 0.095195
2003-09-23 07:13:13 51°14.07 2°53.41 29.119421 0.575437 3.363934 0.095195
2003-09-23 07:13:19 51°14.06 2°53.37 30.276511 0.575437 3.36335 0.061486
2003-09-23 07:13:23 51°14.05 2°53.35 29.964485 0.575437 3.363403 0.095195
2003-09-23 07:13:27 51°14.05 2°53.33 30.292962 0.575437 3.363562 0.061486
2003-09-23 07:13:33 51°14.03 2°53.29 30.292962 0.575437 3.363562 0.061486
2003-09-23 07:13:39 51°14.02 2°53.26 29.156824 0.575333 3.363283 0.095195
2003-09-23 07:13:43 51°14.02 2°53.24 29.594325 0.575437 3.364359 0.095195
2003-09-23 07:13:47 51°14.01 2°53.22 29.881516 0.575437 3.364518 0.095195
2003-09-23 07:13:53 51°14 2°53.18 29.094678 0.575437 3.36489 0.095195
2003-09-23 07:13:59 51°13.99 2°53.15 29.657231 0.575438 3.365633 0.128905
2003-09-23 07:14:03 51°13.98 2°53.13 29.657231 0.575438 3.365633 0.128905
2003-09-23 07:14:07 51°13.97 2°53.1 28.985752 0.575438 3.365846 0.095195
2003-09-23 07:14:11 51°13.96 2°53.08 30.14734 0.575438 3.36643 0.095195
2003-09-23 07:14:19 51°13.95 2°53.04 30.034245 0.575438 3.366643 0.095195
2003-09-23 07:14:23 51°13.94 2°53.02 29.942136 0.575438 3.36643 0.095195
2003-09-23 07:14:27 51°13.93 2°52.99 29.392878 0.575438 3.366803 0.128905
2003-09-23 07:14:33 51°13.92 2°52.96 29.392878 0.575438 3.366803 0.128905
2003-09-23 07:14:39 51°13.91 2°52.93 29.739951 0.575438 3.366484 0.095195
2003-09-23 07:14:43 51°13.9 2°52.9 29.128238 0.575438 3.36643 0.095195
2003-09-23 07:14:49 51°13.89 2°52.87 30.352622 0.575438 3.366484 0.095195
2003-09-23 07:14:53 51°13.89 2°52.85 29.947503 0.575438 3.366271 0.061486
2003-09-23 07:14:59 51°13.87 2°52.82 29.631387 0.575438 3.366271 0.095195
2003-09-23 07:15:03 51°13.87 2°52.79 29.631387 0.575438 3.366271 0.095195
2003-09-23 07:15:07 51°13.86 2°52.77 30.560994 0.575438 3.366271 0.095195
2003-09-23 07:15:13 51°13.85 2°52.74 29.94143 0.575438 3.366112 0.061486
2003-09-23 07:15:19 51°13.84 2°52.71 29.989687 0.575333 3.365885 0.095195
2003-09-23 07:15:23 51°13.83 2°52.68 30.173924 0.575438 3.366324 0.128905
2003-09-23 07:15:27 51°13.82 2°52.66 29.692775 0.575333 3.365991 0.095195
2003-09-23 07:15:33 51°13.81 2°52.63 29.692775 0.575333 3.365991 0.095195
2003-09-23 07:15:39 51°13.8 2°52.6 29.905402 0.575438 3.367069 0.095195
2003-09-23 07:15:43 51°13.79 2°52.57 29.589571 0.575438 3.367069 0.128905
2003-09-23 07:15:49 51°13.78 2°52.54 30.408726 0.575333 3.366523 0.095195
2003-09-23 07:15:53 51°13.77 2°52.52 30.974886 0.575438 3.367388 0.095195
2003-09-23 07:15:59 51°13.76 2°52.48 30.500236 0.575333 3.366363 0.128905
2003-09-23 07:16:03 51°13.75 2°52.47 30.500236 0.575333 3.366363 0.128905
2003-09-23 07:16:09 51°13.74 2°52.43 29.95001 0.575229 3.365871 0.128905
2003-09-23 07:16:13 51°13.73 2°52.41 30.031917 0.575229 3.366881 0.095195
2003-09-23 07:16:19 51°13.72 2°52.38 29.341107 0.575333 3.368119 0.095195
2003-09-23 07:16:23 51°13.71 2°52.35 30.140684 0.575229 3.368212 0.128905
2003-09-23 07:16:29 51°13.7 2°52.32 29.871655 0.575229 3.367946 0.128905
2003-09-23 07:16:33 51°13.7 2°52.3 29.871655 0.575229 3.367946 0.128905
2003-09-23 07:16:39 51°13.69 2°52.26 28.949624 0.575229 3.367733 0.095195
2003-09-23 07:16:43 51°13.68 2°52.24 30.778263 0.575229 3.367254 0.128905
2003-09-23 07:16:47 51°13.67 2°52.22 29.890068 0.575333 3.366151 0.095195
2003-09-23 07:16:53 51°13.66 2°52.19 30.379064 0.575229 3.365233 0.095195
2003-09-23 07:16:59 51°13.65 2°52.15 30.085862 0.575229 3.363958 0.095195
2003-09-23 07:17:03 51°13.64 2°52.13 30.085862 0.575229 3.363958 0.095195
2003-09-23 07:17:07 51°13.63 2°52.11 30.231039 0.575124 3.36336 0.095195
2003-09-23 07:17:13 51°13.62 2°52.08 30.170861 0.575229 3.364595 0.095195
2003-09-23 07:17:19 51°13.61 2°52.04 29.719625 0.575124 3.364528 0.095195
2003-09-23 07:17:23 51°13.6 2°52.02 30.267721 0.575124 3.3649 0.128905
2003-09-23 07:17:27 51°13.6 2°52 29.891199 0.575124 3.365219 0.095195
2003-09-23 07:17:33 51°13.58 2°51.97 29.891199 0.575124 3.365219 0.095195
2003-09-23 07:17:39 51°13.57 2°51.93 29.969745 0.575229 3.365499 0.128905
2003-09-23 07:17:43 51°13.56 2°51.91 29.02022 0.575124 3.365219 0.095195
2003-09-23 07:17:49 51°13.55 2°51.88 29.428582 0.575124 3.365219 0.095195
2003-09-23 07:17:53 51°13.54 2°51.86 30.464262 0.575124 3.365644 0.095195
2003-09-23 07:17:59 51°13.53 2°51.83 29.987358 0.57502 3.366428 0.095195
2003-09-23 07:18:03 51°13.52 2°51.8 29.987358 0.57502 3.366428 0.095195
2003-09-23 07:18:09 51°13.51 2°51.77 29.609542 0.575124 3.367613 0.128905
2003-09-23 07:18:13 51°13.51 2°51.75 30.333303 0.575124 3.367826 0.128905
2003-09-23 07:18:19 51°13.49 2°51.71 29.730214 0.575124 3.367666 0.128905
2003-09-23 07:18:23 51°13.49 2°51.69 29.76013 0.57502 3.366535 0.095195
2003-09-23 07:18:27 51°13.48 2°51.67 29.356517 0.57502 3.365311 0.128905
2003-09-23 07:18:33 51°13.47 2°51.64 29.356517 0.57502 3.365311 0.128905
2003-09-23 07:18:39 51°13.46 2°51.61 29.982734 0.57502 3.363929 0.095195
2003-09-23 07:18:43 51°13.45 2°51.58 29.561362 0.57502 3.363398 0.095195
2003-09-23 07:18:47 51°13.44 2°51.56 30.168361 0.57502 3.362761 0.095195
2003-09-23 07:18:53 51°13.43 2°51.53 29.618302 0.57502 3.362655 0.128905
2003-09-23 07:18:59 51°13.42 2°51.5 30.344403 0.57502 3.362602 0.095195
2003-09-23 07:19:03 51°13.41 2°51.47 30.344403 0.57502 3.362602 0.095195
2003-09-23 07:19:07 51°13.4 2°51.45 30.230934 0.57502 3.363026 0.128905
2003-09-23 07:19:13 51°13.39 2°51.42 29.593332 0.57502 3.363504 0.128905
2003-09-23 07:19:19 51°13.38 2°51.38 30.462158 0.57502 3.363823 0.095195
2003-09-23 07:19:23 51°13.37 2°51.36 29.136019 0.57502 3.364461 0.095195
2003-09-23 07:19:27 51°13.36 2°51.34 30.257172 0.57502 3.364461 0.095195
2003-09-23 07:19:33 51°13.35 2°51.31 30.257172 0.57502 3.364461 0.095195
2003-09-23 07:19:39 51°13.34 2°51.27 29.397609 0.57502 3.365098 0.162614
2003-09-23 07:19:43 51°13.34 2°51.25 29.253672 0.57502 3.365152 0.128905
2003-09-23 07:19:47 51°13.33 2°51.23 30.779555 0.57502 3.365311 0.095195
2003-09-23 07:19:53 51°13.32 2°51.2 30.417429 0.57502 3.365364 0.128905
2003-09-23 07:19:59 51°13.31 2°51.16 29.976769 0.57502 3.365258 0.095195
2003-09-23 07:20:03 51°13.3 2°51.14 29.976769 0.57502 3.365258 0.095195
2003-09-23 07:20:09 51°13.29 2°51.11 30.020242 0.57502 3.365524 0.128905
2003-09-23 07:20:13 51°13.28 2°51.08 31.213001 0.57502 3.365205 0.095195
2003-09-23 07:20:19 51°13.27 2°51.05 30.504512 0.57502 3.365524 0.095195
2003-09-23 07:20:23 51°13.26 2°51.03 30.534265 0.57502 3.365471 0.095195
2003-09-23 07:20:27 51°13.25 2°51.01 30.043591 0.57502 3.365417 0.128905
2003-09-23 07:20:33 51°13.24 2°50.98 30.043591 0.57502 3.365417 0.128905
2003-09-23 07:20:39 51°13.23 2°50.94 30.330633 0.57502 3.365524 0.095195
2003-09-23 07:20:43 51°13.22 2°50.92 30.308075 0.57502 3.36563 0.128905
2003-09-23 07:20:47 51°13.22 2°50.9 29.803161 0.57502 3.365311 0.095195
2003-09-23 07:20:53 51°13.2 2°50.86 30.222561 0.57502 3.365258 0.095195
2003-09-23 07:20:59 51°13.19 2°50.83 29.85087 0.57502 3.365045 0.128905
2003-09-23 07:21:03 51°13.19 2°50.81 29.85087 0.57502 3.365045 0.128905
2003-09-23 07:21:07 51°13.18 2°50.79 29.5598 0.57502 3.365098 0.095195
2003-09-23 07:21:13 51°13.17 2°50.75 29.617735 0.57502 3.364939 0.128905
2003-09-23 07:21:19 51°13.16 2°50.72 29.238633 0.57502 3.364939 0.061486
2003-09-23 07:21:23 51°13.15 2°50.7 28.867393 0.57502 3.364992 0.095195
2003-09-23 07:21:27 51°13.14 2°50.68 28.894037 0.57502 3.364886 0.095195
2003-09-23 07:21:31 51°13.13 2°50.65 28.894037 0.57502 3.364886 0.095195
2003-09-23 07:21:39 51°13.12 2°50.61 28.483798 0.574916 3.36434 0.095195
2003-09-23 07:21:43 51°13.11 2°50.59 30.184168 0.57502 3.364992 0.095195
2003-09-23 07:21:47 51°13.1 2°50.57 29.041664 0.57502 3.364992 0.095195
2003-09-23 07:21:53 51°13.09 2°50.53 28.727498 0.57502 3.365364 0.128905
2003-09-23 07:21:59 51°13.08 2°50.5 27.914747 0.57502 3.365152 0.095195
2003-09-23 07:22:03 51°13.07 2°50.48 27.914747 0.57502 3.365152 0.095195
2003-09-23 07:22:07 51°13.07 2°50.46 28.53566 0.574916 3.365084 0.128905
2003-09-23 07:22:13 51°13.06 2°50.42 28.105359 0.57502 3.366056 0.095195
2003-09-23 07:22:19 51°13.04 2°50.39 29.838813 0.574916 3.365669 0.128905
2003-09-23 07:22:23 51°13.04 2°50.37 29.315332 0.57502 3.366375 0.128905
2003-09-23 07:22:29 51°13.03 2°50.33 29.777367 0.574916 3.365776 0.095195
2003-09-23 07:22:33 51°13.02 2°50.31 29.777367 0.574916 3.365776 0.095195
2003-09-23 07:22:39 51°13.01 2°50.28 29.261369 0.57502 3.366162 0.128905
2003-09-23 07:22:43 51°13 2°50.26 29.518264 0.574916 3.365297 0.128905
2003-09-23 07:22:49 51°12.99 2°50.23 29.898407 0.574916 3.364978 0.095195
2003-09-23 07:22:53 51°12.98 2°50.2 29.429968 0.574916 3.364606 0.061486
2003-09-23 07:22:59 51°12.97 2°50.17 29.669246 0.574916 3.36434 0.128905
2003-09-23 07:23:03 51°12.96 2°50.15 29.669246 0.574916 3.36434 0.128905
2003-09-23 07:23:09 51°12.95 2°50.11 29.86957 0.574916 3.364127 0.061486
2003-09-23 07:23:13 51°12.94 2°50.09 29.445325 0.574916 3.364181 0.128905
2003-09-23 07:23:19 51°12.93 2°50.06 29.358546 0.574811 3.363422 0.128905
2003-09-23 07:23:23 51°12.92 2°50.04 29.267141 0.574811 3.363529 0.095195
2003-09-23 07:23:29 51°12.91 2°50 29.623373 0.574811 3.363847 0.095195
2003-09-23 07:23:33 51°12.91 2°49.98 29.623373 0.574811 3.363847 0.095195
2003-09-23 07:23:39 51°12.89 2°49.95 29.036697 0.574811 3.363847 0.095195
2003-09-23 07:23:43 51°12.89 2°49.92 29.475177 0.574811 3.364166 0.095195
2003-09-23 07:23:49 51°12.88 2°49.89 29.418626 0.574811 3.364804 0.128905
2003-09-23 07:23:53 51°12.87 2°49.87 29.688984 0.574811 3.364858 0.128905
2003-09-23 07:23:59 51°12.86 2°49.84 29.827214 0.574811 3.365177 0.095195
2003-09-23 07:24:03 51°12.85 2°49.81 29.827214 0.574811 3.365177 0.095195
2003-09-23 07:24:09 51°12.84 2°49.78 29.597518 0.574811 3.365283 0.128905
2003-09-23 07:24:13 51°12.83 2°49.76 30.178606 0.574811 3.36539 0.128905
2003-09-23 07:24:19 51°12.82 2°49.73 29.339362 0.574811 3.365283 0.162614
2003-09-23 07:24:23 51°12.81 2°49.7 29.441486 0.574811 3.365017 0.095195
2003-09-23 07:24:27 51°12.8 2°49.68 29.807017 0.574811 3.365336 0.128905
2003-09-23 07:24:33 51°12.79 2°49.65 29.807017 0.574811 3.365336 0.128905
2003-09-23 07:24:39 51°12.78 2°49.62 29.459613 0.574811 3.365496 0.128905
2003-09-23 07:24:43 51°12.77 2°49.6 29.4262 0.574811 3.365549 0.095195
2003-09-23 07:24:49 51°12.76 2°49.56 30.330141 0.574811 3.365656 0.128905
2003-09-23 07:24:53 51°12.76 2°49.54 29.981146 0.574811 3.365549 0.128905
2003-09-23 07:24:59 51°12.74 2°49.51 29.92914 0.574811 3.365443 0.095195
2003-09-23 07:25:03 51°12.74 2°49.49 29.92914 0.574811 3.365443 0.095195
2003-09-23 07:25:07 51°12.73 2°49.46 30.306915 0.574811 3.365283 0.128905
2003-09-23 07:25:13 51°12.72 2°49.43 30.624469 0.574707 3.364418 0.095195
2003-09-23 07:25:19 51°12.71 2°49.4 29.673747 0.574811 3.364804 0.095195
2003-09-23 07:25:23 51°12.7 2°49.38 29.233179 0.574707 3.364046 0.095195
2003-09-23 07:25:27 51°12.69 2°49.35 29.306537 0.574707 3.363674 0.095195
2003-09-23 07:25:33 51°12.68 2°49.32 29.306537 0.574707 3.363674 0.095195
2003-09-23 07:25:39 51°12.67 2°49.29 29.852001 0.574707 3.363939 0.128905
2003-09-23 07:25:43 51°12.66 2°49.27 29.906462 0.574707 3.363886 0.095195
2003-09-23 07:25:49 51°12.65 2°49.24 29.56019 0.574707 3.364099 0.095195
2003-09-23 07:25:53 51°12.64 2°49.22 29.532147 0.574707 3.364205 0.095195
2003-09-23 07:25:59 51°12.63 2°49.18 28.389521 0.574707 3.364471 0.162614
2003-09-23 07:26:03 51°12.62 2°49.16 28.389521 0.574707 3.364471 0.162614
2003-09-23 07:26:09 51°12.61 2°49.13 29.71325 0.574707 3.364578 0.095195
2003-09-23 07:26:13 51°12.6 2°49.11 29.098606 0.574707 3.36495 0.128905
2003-09-23 07:26:19 51°12.59 2°49.08 28.660793 0.574707 3.36511 0.128905
2003-09-23 07:26:23 51°12.58 2°49.06 28.780123 0.574707 3.365322 0.128905
2003-09-23 07:26:27 51°12.57 2°49.03 29.133449 0.574707 3.365376 0.095195
2003-09-23 07:26:33 51°12.56 2°49 29.133449 0.574707 3.365376 0.095195
2003-09-23 07:26:39 51°12.55 2°48.97 29.076784 0.574603 3.364723 0.128905
2003-09-23 07:26:43 51°12.54 2°48.95 28.902416 0.574707 3.36511 0.095195
2003-09-23 07:26:47 51°12.53 2°48.93 29.691216 0.574603 3.364617 0.095195
2003-09-23 07:26:53 51°12.52 2°48.9 28.699215 0.574707 3.365269 0.128905
2003-09-23 07:26:59 51°12.5 2°48.87 28.228069 0.574603 3.364563 0.095195
2003-09-23 07:27:03 51°12.5 2°48.84 28.228069 0.574603 3.364563 0.095195
2003-09-23 07:27:09 51°12.48 2°48.81 30.353044 0.574707 3.365482 0.196324
2003-09-23 07:27:13 51°12.48 2°48.79 29.288551 0.574707 3.365269 0.095195
2003-09-23 07:27:19 51°12.46 2°48.76 30.102319 0.574603 3.36467 0.162614
2003-09-23 07:27:23 51°12.46 2°48.74 29.578892 0.574603 3.36467 0.128905
2003-09-23 07:27:27 51°12.45 2°48.72 30.595312 0.574603 3.364457 0.095195
2003-09-23 07:27:33 51°12.43 2°48.69 30.595312 0.574603 3.364457 0.095195
2003-09-23 07:27:39 51°12.42 2°48.66 29.668608 0.574603 3.364617 0.095195
2003-09-23 07:27:43 51°12.41 2°48.64 30.074547 0.574603 3.36467 0.162614
2003-09-23 07:27:49 51°12.4 2°48.6 30.220063 0.574603 3.364457 0.095195
2003-09-23 07:27:53 51°12.39 2°48.58 30.365265 0.574603 3.36483 0.196324
2003-09-23 07:27:59 51°12.38 2°48.55 29.415639 0.574603 3.364617 0.061486
2003-09-23 07:28:03 51°12.37 2°48.53 29.415639 0.574603 3.364617 0.061486
2003-09-23 07:28:09 51°12.36 2°48.5 29.823076 0.574603 3.364776 0.162614
2003-09-23 07:28:13 51°12.35 2°48.48 29.879855 0.574603 3.364723 0.095195
2003-09-23 07:28:19 51°12.34 2°48.45 30.599303 0.574603 3.364989 0.162614
2003-09-23 07:28:23 51°12.33 2°48.42 29.679913 0.574603 3.36483 0.128905
2003-09-23 07:28:27 51°12.32 2°48.4 28.603986 0.574603 3.36483 0.061486
2003-09-23 07:28:33 51°12.31 2°48.37 28.603986 0.574603 3.36483 0.061486
2003-09-23 07:28:39 51°12.29 2°48.34 30.121733 0.574603 3.364776 0.128905
2003-09-23 07:28:43 51°12.29 2°48.32 29.683669 0.574603 3.364723 0.095195
2003-09-23 07:28:47 51°12.28 2°48.3 29.741226 0.574498 3.364177 0.162614
2003-09-23 07:28:53 51°12.27 2°48.27 30.671455 0.574603 3.364723 0.061486
2003-09-23 07:28:59 51°12.25 2°48.24 30.524664 0.574498 3.364177 0.095195
2003-09-23 07:29:03 51°12.25 2°48.22 30.524664 0.574498 3.364177 0.095195
2003-09-23 07:29:07 51°12.24 2°48.19 29.514926 0.574498 3.364549 0.128905
2003-09-23 07:29:13 51°12.22 2°48.16 29.946621 0.574498 3.364496 0.095195
2003-09-23 07:29:19 51°12.21 2°48.13 30.323712 0.574498 3.364443 0.128905
2003-09-23 07:29:23 51°12.2 2°48.11 30.587399 0.574498 3.364603 0.128905
2003-09-23 07:29:29 51°12.19 2°48.08 30.441112 0.574498 3.364443 0.095195
2003-09-23 07:29:31 51°12.19 2°48.07 30.441112 0.574498 3.364443 0.095195
2003-09-23 07:29:39 51°12.17 2°48.02 29.609081 0.574498 3.364603 0.162614
2003-09-23 07:29:43 51°12.16 2°48 29.785966 0.574498 3.364496 0.095195
2003-09-23 07:29:47 51°12.15 2°47.98 30.732287 0.574498 3.364656 0.128905
2003-09-23 07:29:53 51°12.14 2°47.95 29.700533 0.574498 3.364496 0.095195
2003-09-23 07:29:59 51°12.13 2°47.91 29.495782 0.574498 3.364496 0.095195
2003-09-23 07:30:03 51°12.12 2°47.89 29.495782 0.574498 3.364496 0.095195
2003-09-23 07:30:07 51°12.11 2°47.87 30.2233 0.574498 3.364656 0.095195
2003-09-23 07:30:13 51°12.1 2°47.84 29.990322 0.574498 3.364656 0.128905
2003-09-23 07:30:19 51°12.09 2°47.81 30.023769 0.574498 3.364816 0.128905
2003-09-23 07:30:23 51°12.08 2°47.78 29.297562 0.574498 3.364549 0.095195
2003-09-23 07:30:29 51°12.07 2°47.75 29.733188 0.574498 3.364816 0.162614
2003-09-23 07:30:33 51°12.06 2°47.73 29.733188 0.574498 3.364816 0.162614
2003-09-23 07:30:39 51°12.05 2°47.7 29.971828 0.574498 3.364656 0.061486
2003-09-23 07:30:43 51°12.04 2°47.68 30.14417 0.574394 3.364056 0.128905
2003-09-23 07:30:49 51°12.03 2°47.65 30.394862 0.574394 3.364163 0.095195
2003-09-23 07:30:53 51°12.02 2°47.62 30.785841 0.574394 3.364216 0.128905
2003-09-23 07:30:59 51°12.01 2°47.59 30.000308 0.574394 3.364163 0.128905
2003-09-23 07:31:03 51°12 2°47.57 30.000308 0.574394 3.364163 0.128905
2003-09-23 07:31:09 51°11.99 2°47.54 29.45215 0.574394 3.364216 0.095195
2003-09-23 07:31:13 51°11.98 2°47.52 29.596702 0.574394 3.364482 0.128905
2003-09-23 07:31:19 51°11.97 2°47.48 29.80493 0.574394 3.364269 0.061486
2003-09-23 07:31:23 51°11.96 2°47.46 29.975816 0.574394 3.364802 0.162614
2003-09-23 07:31:27 51°11.95 2°47.44 29.691074 0.574394 3.364429 0.095195
2003-09-23 07:31:33 51°11.94 2°47.41 29.691074 0.574394 3.364429 0.095195
2003-09-23 07:31:39 51°11.93 2°47.38 29.428475 0.574394 3.364695 0.128905
2003-09-23 07:31:43 51°11.92 2°47.36 30.815275 0.574394 3.364802 0.162614
2003-09-23 07:31:49 51°11.91 2°47.32 28.495354 0.574394 3.364748 0.128905
2003-09-23 07:31:53 51°11.9 2°47.3 29.023437 0.574289 3.364255 0.162614
2003-09-23 07:31:57 51°11.89 2°47.28 30.069154 0.574394 3.364855 0.128905
2003-09-23 07:32:03 51°11.88 2°47.25 30.069154 0.574394 3.364855 0.128905
2003-09-23 07:32:09 51°11.86 2°47.22 30.24729 0.574289 3.364415 0.162614
2003-09-23 07:32:13 51°11.85 2°47.2 29.989334 0.574394 3.365121 0.128905
2003-09-23 07:32:19 51°11.84 2°47.16 29.556002 0.574289 3.364468 0.162614
2003-09-23 07:32:23 51°11.83 2°47.14 29.411941 0.574289 3.364575 0.095195
2003-09-23 07:32:29 51°11.82 2°47.11 29.902435 0.574394 3.365174 0.128905
2003-09-23 07:32:33 51°11.82 2°47.09 29.902435 0.574394 3.365174 0.128905
2003-09-23 07:32:39 51°11.81 2°47.05 29.326796 0.574289 3.364575 0.162614
2003-09-23 07:32:43 51°11.8 2°47.03 29.54475 0.574289 3.364575 0.095195
2003-09-23 07:32:47 51°11.8 2°47.01 29.47102 0.574289 3.364521 0.128905
2003-09-23 07:32:53 51°11.79 2°46.97 30.022993 0.574289 3.364575 0.162614
2003-09-23 07:32:59 51°11.78 2°46.94 29.007922 0.574289 3.364521 0.162614
2003-09-23 07:33:03 51°11.77 2°46.91 29.007922 0.574289 3.364521 0.162614
2003-09-23 07:33:07 51°11.77 2°46.89 29.562178 0.574289 3.364468 0.128905
2003-09-23 07:33:13 51°11.76 2°46.86 29.475959 0.574289 3.364521 0.162614
2003-09-23 07:33:19 51°11.75 2°46.82 29.652481 0.574289 3.364521 0.128905
2003-09-23 07:33:23 51°11.75 2°46.8 29.971934 0.574289 3.364521 0.128905
2003-09-23 07:33:29 51°11.74 2°46.76 29.423604 0.574289 3.364575 0.128905
2003-09-23 07:33:33 51°11.73 2°46.74 29.423604 0.574289 3.364575 0.128905
2003-09-23 07:33:39 51°11.72 2°46.71 30.781406 0.574289 3.364681 0.196324
2003-09-23 07:33:43 51°11.72 2°46.68 29.33922 0.574289 3.364575 0.128905
2003-09-23 07:33:49 51°11.71 2°46.65 29.629862 0.574289 3.364841 0.196324
2003-09-23 07:33:53 51°11.7 2°46.62 28.816226 0.574289 3.364734 0.095195
2003-09-23 07:33:59 51°11.7 2°46.59 29.876215 0.574185 3.364454 0.230033
2003-09-23 07:34:03 51°11.69 2°46.57 29.876215 0.574185 3.364454 0.230033
2003-09-23 07:34:07 51°11.69 2°46.54 30.128602 0.574289 3.364788 0.095195
2003-09-23 07:34:13 51°11.68 2°46.51 30.00994 0.574185 3.364401 0.196324
2003-09-23 07:34:19 51°11.67 2°46.47 29.753617 0.574185 3.364348 0.162614
2003-09-23 07:34:23 51°11.66 2°46.45 29.229686 0.574185 3.364348 0.196324
2003-09-23 07:34:27 51°11.66 2°46.43 29.591593 0.574185 3.364295 0.128905
2003-09-23 07:34:33 51°11.65 2°46.39 29.591593 0.574185 3.364295 0.128905
2003-09-23 07:34:39 51°11.64 2°46.36 29.980228 0.574185 3.364401 0.162614
2003-09-23 07:34:43 51°11.63 2°46.33 29.813172 0.574185 3.364241 0.162614
2003-09-23 07:34:49 51°11.62 2°46.3 30.246516 0.574185 3.364454 0.196324
2003-09-23 07:34:51 51°11.62 2°46.29 29.729116 0.574185 3.364401 0.095195
2003-09-23 07:34:59 51°11.61 2°46.24 29.437398 0.574185 3.364614 0.196324
2003-09-23 07:35:03 51°11.6 2°46.22 29.437398 0.574185 3.364614 0.196324
2003-09-23 07:35:09 51°11.6 2°46.18 29.85345 0.574185 3.364454 0.128905
2003-09-23 07:35:13 51°11.59 2°46.16 29.358937 0.574185 3.364667 0.162614
2003-09-23 07:35:19 51°11.58 2°46.13 29.564911 0.574185 3.364667 0.162614
2003-09-23 07:35:23 51°11.58 2°46.1 29.124383 0.574185 3.364721 0.095195
2003-09-23 07:35:29 51°11.57 2°46.07 30.111164 0.574185 3.364827 0.230033
2003-09-23 07:35:33 51°11.56 2°46.05 30.111164 0.574185 3.364827 0.230033
2003-09-23 07:35:39 51°11.55 2°46.01 29.681259 0.574185 3.364721 0.128905
2003-09-23 07:35:43 51°11.55 2°45.99 30.28667 0.574185 3.36488 0.230033
2003-09-23 07:35:49 51°11.54 2°45.95 30.029766 0.574185 3.364721 0.128905
2003-09-23 07:35:53 51°11.53 2°45.93 29.59695 0.574081 3.364281 0.162614
2003-09-23 07:35:59 51°11.52 2°45.89 30.351428 0.574081 3.364227 0.128905
2003-09-23 07:36:03 51°11.52 2°45.87 30.351428 0.574081 3.364227 0.128905
2003-09-23 07:36:07 51°11.51 2°45.85 29.802347 0.574081 3.364387 0.162614
2003-09-23 07:36:13 51°11.5 2°45.81 30.151601 0.574185 3.36504 0.162614
2003-09-23 07:36:19 51°11.49 2°45.78 29.426662 0.574081 3.364494 0.230033
2003-09-23 07:36:23 51°11.49 2°45.76 29.197169 0.574081 3.364387 0.162614
2003-09-23 07:36:29 51°11.48 2°45.72 30.010752 0.574081 3.36444 0.196324
2003-09-23 07:36:33 51°11.48 2°45.7 30.010752 0.574081 3.36444 0.196324
2003-09-23 07:36:39 51°11.47 2°45.66 29.839944 0.574081 3.364494 0.162614
2003-09-23 07:36:43 51°11.46 2°45.64 30.791359 0.574081 3.364707 0.162614
2003-09-23 07:36:47 51°11.46 2°45.62 30.443708 0.574081 3.36476 0.162614
2003-09-23 07:36:53 51°11.45 2°45.58 30.244019 0.574081 3.364653 0.128905
2003-09-23 07:36:59 51°11.44 2°45.55 30.016785 0.574081 3.364867 0.196324
2003-09-23 07:37:03 51°11.43 2°45.52 30.016785 0.574081 3.364867 0.196324
2003-09-23 07:37:07 51°11.43 2°45.5 30.045671 0.574081 3.36476 0.162614
2003-09-23 07:37:13 51°11.42 2°45.47 30.073595 0.574081 3.364813 0.162614
2003-09-23 07:37:19 51°11.41 2°45.43 30.594296 0.574081 3.36492 0.128905
2003-09-23 07:37:23 51°11.4 2°45.41 30.563341 0.574081 3.365026 0.196324
2003-09-23 07:37:27 51°11.4 2°45.38 29.852461 0.574081 3.36492 0.095195
2003-09-23 07:37:31 51°11.39 2°45.36 29.852461 0.574081 3.36492 0.095195
2003-09-23 07:37:39 51°11.38 2°45.31 30.457318 0.574081 3.365133 0.230033
2003-09-23 07:37:43 51°11.38 2°45.29 31.284055 0.574081 3.36508 0.128905
2003-09-23 07:37:47 51°11.37 2°45.27 30.053817 0.574081 3.36508 0.162614
2003-09-23 07:37:53 51°11.36 2°45.23 30.999999 0.574081 3.365186 0.230033
2003-09-23 07:37:59 51°11.35 2°45.2 30.717852 0.574081 3.365026 0.196324
2003-09-23 07:38:03 51°11.35 2°45.17 30.717852 0.574081 3.365026 0.196324
2003-09-23 07:38:09 51°11.34 2°45.14 30.488948 0.574081 3.365239 0.128905
2003-09-23 07:38:13 51°11.33 2°45.11 29.798562 0.573976 3.36464 0.196324
2003-09-23 07:38:19 51°11.33 2°45.08 30.920836 0.574081 3.365346 0.162614
2003-09-23 07:38:23 51°11.32 2°45.06 30.263677 0.573976 3.364746 0.128905
2003-09-23 07:38:27 51°11.31 2°45.03 30.552413 0.573976 3.364746 0.196324
2003-09-23 07:38:31 51°11.31 2°45.01 30.552413 0.573976 3.364746 0.196324
2003-09-23 07:38:39 51°11.3 2°44.96 30.896639 0.573976 3.364799 0.162614
2003-09-23 07:38:43 51°11.29 2°44.94 29.574137 0.573976 3.364693 0.162614
2003-09-23 07:38:49 51°11.28 2°44.91 31.013579 0.573976 3.364906 0.196324
2003-09-23 07:38:53 51°11.28 2°44.88 30.440937 0.573976 3.364799 0.128905
2003-09-23 07:38:59 51°11.27 2°44.85 30.866818 0.573976 3.365013 0.230033
2003-09-23 07:39:03 51°11.26 2°44.83 30.866818 0.573976 3.365013 0.230033
2003-09-23 07:39:09 51°11.26 2°44.79 30.413499 0.573976 3.364853 0.095195
2003-09-23 07:39:13 51°11.25 2°44.77 31.448542 0.573976 3.364959 0.196324
2003-09-23 07:39:19 51°11.24 2°44.73 30.41592 0.573976 3.364853 0.128905
2003-09-23 07:39:23 51°11.23 2°44.71 30.389561 0.573976 3.365119 0.230033
2003-09-23 07:39:29 51°11.23 2°44.68 30.824491 0.573976 3.364959 0.196324
2003-09-23 07:39:33 51°11.22 2°44.65 30.824491 0.573976 3.364959 0.196324
2003-09-23 07:39:39 51°11.21 2°44.62 30.235049 0.573976 3.365013 0.128905
2003-09-23 07:39:43 51°11.21 2°44.6 30.648053 0.573976 3.365173 0.230033
2003-09-23 07:39:49 51°11.2 2°44.56 30.686353 0.573976 3.364959 0.128905
2003-09-23 07:39:53 51°11.19 2°44.54 30.480323 0.573976 3.365226 0.230033
2003-09-23 07:39:59 51°11.18 2°44.5 31.168919 0.573976 3.365066 0.128905
2003-09-23 07:40:03 51°11.18 2°44.48 31.168919 0.573976 3.365066 0.128905
2003-09-23 07:40:09 51°11.17 2°44.45 30.740918 0.573976 3.365226 0.162614
2003-09-23 07:40:13 51°11.16 2°44.42 30.225868 0.573976 3.365332 0.162614
2003-09-23 07:40:19 51°11.15 2°44.39 30.19719 0.573976 3.365332 0.196324
2003-09-23 07:40:23 51°11.15 2°44.37 30.429781 0.573976 3.365439 0.162614
2003-09-23 07:40:27 51°11.14 2°44.34 30.517095 0.573976 3.365439 0.196324
2003-09-23 07:40:33 51°11.14 2°44.31 30.517095 0.573976 3.365439 0.196324
2003-09-23 07:40:39 51°11.13 2°44.27 29.768448 0.573976 3.365546 0.162614
2003-09-23 07:40:43 51°11.12 2°44.25 30.434552 0.573976 3.365546 0.162614
2003-09-23 07:40:47 51°11.12 2°44.23 31.179621 0.573976 3.365599 0.196324
2003-09-23 07:40:53 51°11.11 2°44.19 30.524033 0.573872 3.364892 0.196324
2003-09-23 07:40:59 51°11.1 2°44.16 30.553463 0.573976 3.365652 0.196324
2003-09-23 07:41:03 51°11.09 2°44.14 30.553463 0.573976 3.365652 0.196324
2003-09-23 07:41:09 51°11.09 2°44.1 30.176106 0.573976 3.365546 0.162614
2003-09-23 07:41:13 51°11.08 2°44.08 30.670685 0.573976 3.365546 0.196324
2003-09-23 07:41:19 51°11.07 2°44.04 30.409252 0.573976 3.365759 0.162614
2003-09-23 07:41:23 51°11.07 2°44.02 30.330563 0.573872 3.364946 0.162614
2003-09-23 07:41:29 51°11.06 2°43.99 30.013574 0.573872 3.365106 0.196324
2003-09-23 07:41:33 51°11.05 2°43.96 30.013574 0.573872 3.365106 0.196324
2003-09-23 07:41:39 51°11.04 2°43.93 29.697026 0.573872 3.365106 0.128905
2003-09-23 07:41:43 51°11.04 2°43.91 31.277601 0.573872 3.365265 0.128905
2003-09-23 07:41:49 51°11.03 2°43.87 30.759261 0.573872 3.365372 0.162614
2003-09-23 07:41:53 51°11.02 2°43.85 31.195323 0.573872 3.365479 0.196324
2003-09-23 07:41:59 51°11.01 2°43.82 29.929034 0.573872 3.365372 0.128905
2003-09-23 07:42:03 51°11.01 2°43.79 29.929034 0.573872 3.365372 0.128905
2003-09-23 07:42:09 51°11 2°43.76 29.98824 0.573872 3.365372 0.162614
2003-09-23 07:42:13 51°10.99 2°43.74 30.995158 0.573872 3.365425 0.162614
2003-09-23 07:42:19 51°10.99 2°43.7 30.624329 0.573872 3.365532 0.162614
2003-09-23 07:42:23 51°10.98 2°43.68 29.703792 0.573872 3.365425 0.128905
2003-09-23 07:42:29 51°10.97 2°43.65 30.338116 0.573872 3.365799 0.230033
2003-09-23 07:42:33 51°10.97 2°43.62 30.338116 0.573872 3.365799 0.230033
2003-09-23 07:42:39 51°10.96 2°43.59 30.054205 0.573872 3.365585 0.128905
2003-09-23 07:42:43 51°10.96 2°43.56 30.863748 0.573872 3.365799 0.162614
2003-09-23 07:42:47 51°10.95 2°43.54 31.208313 0.573872 3.365799 0.196324
2003-09-23 07:42:53 51°10.95 2°43.5 30.896046 0.573872 3.365799 0.162614
2003-09-23 07:42:59 51°10.94 2°43.47 30.059917 0.573872 3.365799 0.162614
2003-09-23 07:43:03 51°10.94 2°43.44 30.059917 0.573872 3.365799 0.162614
2003-09-23 07:43:09 51°10.93 2°43.41 29.828275 0.573872 3.365959 0.230033
2003-09-23 07:43:13 51°10.93 2°43.38 30.35062 0.573872 3.365852 0.162614
2003-09-23 07:43:19 51°10.93 2°43.35 30.351814 0.573872 3.365852 0.162614
2003-09-23 07:43:23 51°10.92 2°43.32 29.78685 0.573872 3.366012 0.196324
2003-09-23 07:43:29 51°10.92 2°43.29 30.412727 0.573872 3.365852 0.162614
2003-09-23 07:43:33 51°10.91 2°43.26 30.412727 0.573872 3.365852 0.162614
2003-09-23 07:43:39 51°10.91 2°43.23 29.604825 0.573872 3.366012 0.128905
2003-09-23 07:43:43 51°10.91 2°43.2 30.209507 0.573872 3.366119 0.162614
2003-09-23 07:43:49 51°10.9 2°43.17 30.21482 0.573872 3.366119 0.196324
2003-09-23 07:43:53 51°10.9 2°43.14 30.183604 0.573872 3.366172 0.095195
2003-09-23 07:43:59 51°10.89 2°43.11 29.784444 0.573768 3.365732 0.230033
2003-09-23 07:44:03 51°10.89 2°43.08 29.784444 0.573768 3.365732 0.230033
2003-09-23 07:44:07 51°10.89 2°43.06 30.01368 0.573768 3.365572 0.162614
2003-09-23 07:44:13 51°10.88 2°43.02 29.946656 0.573768 3.365785 0.196324
2003-09-23 07:44:19 51°10.88 2°42.99 30.510015 0.573768 3.365839 0.230033
2003-09-23 07:44:23 51°10.88 2°42.96 30.494276 0.573768 3.365679 0.128905
2003-09-23 07:44:29 51°10.87 2°42.93 31.223071 0.573768 3.365892 0.162614
2003-09-23 07:44:33 51°10.87 2°42.91 31.223071 0.573768 3.365892 0.162614
2003-09-23 07:44:39 51°10.86 2°42.87 31.342945 0.573768 3.365892 0.162614
2003-09-23 07:44:43 51°10.86 2°42.85 30.458195 0.573768 3.365732 0.128905
2003-09-23 07:44:49 51°10.86 2°42.81 30.655889 0.573768 3.365999 0.196324
2003-09-23 07:44:51 51°10.85 2°42.8 30.169101 0.573768 3.365945 0.128905
2003-09-23 07:44:59 51°10.85 2°42.75 30.601543 0.573768 3.366159 0.196324
2003-09-23 07:45:03 51°10.84 2°42.73 30.601543 0.573768 3.366159 0.196324
2003-09-23 07:45:07 51°10.84 2°42.71 30.200745 0.573768 3.366052 0.162614
2003-09-23 07:45:13 51°10.84 2°42.67 30.717782 0.573768 3.366212 0.196324
2003-09-23 07:45:19 51°10.83 2°42.64 31.176945 0.573768 3.366265 0.162614
2003-09-23 07:45:23 51°10.83 2°42.61 31.37615 0.573768 3.366426 0.230033
2003-09-23 07:45:29 51°10.82 2°42.58 30.148467 0.573768 3.366319 0.196324
2003-09-23 07:45:31 51°10.82 2°42.57 30.148467 0.573768 3.366319 0.196324
2003-09-23 07:45:39 51°10.82 2°42.52 31.26615 0.573768 3.366319 0.128905
2003-09-23 07:45:43 51°10.81 2°42.5 30.381978 0.573768 3.366265 0.162614
2003-09-23 07:45:47 51°10.81 2°42.47 30.865039 0.573768 3.366532 0.196324
2003-09-23 07:45:53 51°10.81 2°42.44 30.586419 0.573768 3.366426 0.095195
2003-09-23 07:45:59 51°10.8 2°42.4 31.301401 0.573768 3.366426 0.128905
2003-09-23 07:46:03 51°10.8 2°42.38 31.301401 0.573768 3.366426 0.128905
2003-09-23 07:46:07 51°10.79 2°42.36 31.387654 0.573768 3.366639 0.162614
2003-09-23 07:46:11 51°10.79 2°42.33 31.247616 0.573768 3.366639 0.162614
2003-09-23 07:46:19 51°10.79 2°42.29 30.333197 0.573768 3.366639 0.095195
2003-09-23 07:46:23 51°10.78 2°42.26 30.449005 0.573663 3.366145 0.162614
2003-09-23 07:46:27 51°10.78 2°42.24 30.90445 0.573768 3.366692 0.128905
2003-09-23 07:46:33 51°10.77 2°42.21 30.90445 0.573768 3.366692 0.128905
2003-09-23 07:46:39 51°10.77 2°42.17 31.190321 0.573663 3.366199 0.162614
2003-09-23 07:46:43 51°10.77 2°42.15 31.389387 0.573663 3.366252 0.095195
2003-09-23 07:46:49 51°10.76 2°42.11 31.221439 0.573663 3.366359 0.128905
2003-09-23 07:46:53 51°10.76 2°42.09 30.082302 0.573663 3.366306 0.095195
2003-09-23 07:46:59 51°10.75 2°42.05 30.852968 0.573663 3.366572 0.230033
2003-09-23 07:47:03 51°10.75 2°42.03 30.852968 0.573663 3.366572 0.230033
2003-09-23 07:47:09 51°10.75 2°42 30.655015 0.573663 3.366466 0.128905
2003-09-23 07:47:11 51°10.75 2°41.98 31.591911 0.573663 3.366412 0.162614
2003-09-23 07:47:19 51°10.74 2°41.94 31.823984 0.573663 3.366519 0.162614
2003-09-23 07:47:23 51°10.74 2°41.91 30.888897 0.573663 3.366466 0.196324
2003-09-23 07:47:29 51°10.73 2°41.88 31.175972 0.573663 3.366626 0.162614
2003-09-23 07:47:33 51°10.73 2°41.86 31.175972 0.573663 3.366626 0.162614
2003-09-23 07:47:39 51°10.72 2°41.82 30.375518 0.573663 3.366626 0.263742
2003-09-23 07:47:43 51°10.72 2°41.8 30.461351 0.573663 3.366679 0.061486
2003-09-23 07:47:49 51°10.71 2°41.76 30.464508 0.573663 3.366946 0.162614
2003-09-23 07:47:53 51°10.71 2°41.74 31.009958 0.573663 3.366893 0.128905
2003-09-23 07:47:59 51°10.71 2°41.7 31.551158 0.573663 3.366893 0.196324
2003-09-23 07:48:03 51°10.7 2°41.68 31.551158 0.573663 3.366893 0.196324
2003-09-23 07:48:07 51°10.7 2°41.66 30.984012 0.573663 3.366946 0.162614
2003-09-23 07:48:13 51°10.7 2°41.62 31.440925 0.573663 3.366786 0.128905
2003-09-23 07:48:19 51°10.69 2°41.59 31.300187 0.573663 3.367106 0.230033
2003-09-23 07:48:23 51°10.69 2°41.56 31.20411 0.573663 3.367 0.128905
2003-09-23 07:48:29 51°10.68 2°41.53 30.761741 0.573663 3.367 0.128905
2003-09-23 07:48:33 51°10.68 2°41.51 30.761741 0.573663 3.367 0.128905
2003-09-23 07:48:39 51°10.68 2°41.47 31.315066 0.573663 3.367213 0.196324
2003-09-23 07:48:43 51°10.67 2°41.45 30.6202 0.573663 3.367053 0.162614
2003-09-23 07:48:47 51°10.67 2°41.42 31.501147 0.573663 3.367213 0.230033
2003-09-23 07:48:53 51°10.66 2°41.39 31.395138 0.573663 3.367213 0.128905
2003-09-23 07:48:59 51°10.66 2°41.36 30.963633 0.573663 3.367267 0.196324
2003-09-23 07:49:03 51°10.66 2°41.33 30.963633 0.573663 3.367267 0.196324
2003-09-23 07:49:09 51°10.65 2°41.3 30.937184 0.573559 3.366613 0.162614
2003-09-23 07:49:13 51°10.65 2°41.27 31.705309 0.573663 3.367267 0.095195
2003-09-23 07:49:19 51°10.64 2°41.24 30.825503 0.573559 3.366773 0.230033
2003-09-23 07:49:23 51°10.64 2°41.21 30.913167 0.573559 3.366613 0.128905
2003-09-23 07:49:29 51°10.64 2°41.18 31.567718 0.573559 3.366773 0.230033
2003-09-23 07:49:31 51°10.63 2°41.17 31.567718 0.573559 3.366773 0.230033
2003-09-23 07:49:39 51°10.63 2°41.12 31.03029 0.573559 3.36688 0.230033
2003-09-23 07:49:43 51°10.62 2°41.1 32.167389 0.573559 3.366773 0.128905
2003-09-23 07:49:47 51°10.62 2°41.08 30.546457 0.573559 3.366933 0.162614
2003-09-23 07:49:53 51°10.62 2°41.04 32.059926 0.573559 3.36688 0.128905
2003-09-23 07:49:59 51°10.61 2°41.01 30.979554 0.573559 3.366987 0.162614
2003-09-23 07:50:03 51°10.61 2°40.98 30.979554 0.573559 3.366987 0.162614
2003-09-23 07:50:09 51°10.6 2°40.95 31.492636 0.573559 3.366987 0.196324
2003-09-23 07:50:13 51°10.6 2°40.92 31.295087 0.573559 3.367093 0.196324
2003-09-23 07:50:19 51°10.6 2°40.89 31.721318 0.573559 3.367147 0.128905
2003-09-23 07:50:23 51°10.59 2°40.86 31.23564 0.573559 3.3672 0.162614
2003-09-23 07:50:27 51°10.59 2°40.84 32.146635 0.573559 3.3672 0.128905
2003-09-23 07:50:33 51°10.58 2°40.81 32.146635 0.573559 3.3672 0.128905
2003-09-23 07:50:39 51°10.58 2°40.77 31.754532 0.573559 3.367307 0.196324
2003-09-23 07:50:43 51°10.58 2°40.75 31.097584 0.573559 3.367361 0.128905
2003-09-23 07:50:49 51°10.57 2°40.71 31.468689 0.573559 3.3672 0.162614
2003-09-23 07:50:53 51°10.57 2°40.69 30.958302 0.573559 3.367361 0.162614
2003-09-23 07:50:59 51°10.56 2°40.66 31.704032 0.573559 3.367307 0.162614
2003-09-23 07:51:03 51°10.56 2°40.63 31.704032 0.573559 3.367307 0.162614
2003-09-23 07:51:09 51°10.56 2°40.6 31.506337 0.573559 3.367574 0.196324
2003-09-23 07:51:13 51°10.55 2°40.58 31.109965 0.573559 3.367467 0.162614
2003-09-23 07:51:19 51°10.55 2°40.54 31.982917 0.573559 3.367574 0.162614
2003-09-23 07:51:23 51°10.54 2°40.52 31.41994 0.573559 3.367681 0.196324
2003-09-23 07:51:29 51°10.54 2°40.48 31.449996 0.573559 3.367681 0.128905
2003-09-23 07:51:33 51°10.54 2°40.46 31.449996 0.573559 3.367681 0.128905
2003-09-23 07:51:39 51°10.53 2°40.43 31.286935 0.573559 3.367735 0.128905
2003-09-23 07:51:43 51°10.53 2°40.4 30.454652 0.573559 3.367735 0.162614
2003-09-23 07:51:49 51°10.52 2°40.37 31.232932 0.573559 3.367841 0.162614
2003-09-23 07:51:53 51°10.52 2°40.34 31.682981 0.573559 3.367735 0.128905
2003-09-23 07:51:59 51°10.51 2°40.31 30.916653 0.573455 3.367241 0.162614
2003-09-23 07:52:03 51°10.51 2°40.29 30.916653 0.573455 3.367241 0.162614
2003-09-23 07:52:07 51°10.51 2°40.26 30.056884 0.573455 3.367294 0.196324
2003-09-23 07:52:11 51°10.51 2°40.24 31.11911 0.573455 3.367294 0.162614
2003-09-23 07:52:19 51°10.5 2°40.19 31.354073 0.573455 3.367401 0.196324
2003-09-23 07:52:23 51°10.5 2°40.17 30.83723 0.573455 3.367401 0.128905
2003-09-23 07:52:27 51°10.49 2°40.15 30.226853 0.573455 3.367508 0.196324
2003-09-23 07:52:33 51°10.49 2°40.11 30.226853 0.573455 3.367508 0.196324
2003-09-23 07:52:39 51°10.49 2°40.08 31.182191 0.573455 3.367561 0.196324
2003-09-23 07:52:43 51°10.48 2°40.05 30.865283 0.573455 3.367615 0.230033
2003-09-23 07:52:47 51°10.48 2°40.03 30.067074 0.573455 3.367508 0.128905
2003-09-23 07:52:53 51°10.47 2°39.99 32.903304 0.573455 3.367615 0.128905
2003-09-23 07:52:59 51°10.47 2°39.96 31.496061 0.573455 3.367829 0.230033
2003-09-23 07:53:03 51°10.47 2°39.94 31.496061 0.573455 3.367829 0.230033
2003-09-23 07:53:09 51°10.46 2°39.9 31.212619 0.573455 3.367775 0.128905
2003-09-23 07:53:13 51°10.46 2°39.88 31.191119 0.573455 3.367829 0.162614
2003-09-23 07:53:19 51°10.45 2°39.84 31.839485 0.573455 3.367829 0.196324
2003-09-23 07:53:23 51°10.45 2°39.82 31.875369 0.573455 3.367936 0.162614
2003-09-23 07:53:29 51°10.44 2°39.79 31.163255 0.573455 3.367936 0.162614
2003-09-23 07:53:33 51°10.44 2°39.76 31.163255 0.573455 3.367936 0.162614
2003-09-23 07:53:39 51°10.44 2°39.73 31.283361 0.573455 3.367989 0.128905
2003-09-23 07:53:43 51°10.43 2°39.7 31.427178 0.573455 3.367989 0.196324
2003-09-23 07:53:49 51°10.43 2°39.67 30.423675 0.573455 3.367989 0.128905
2003-09-23 07:53:53 51°10.42 2°39.65 30.969033 0.573455 3.368096 0.196324
2003-09-23 07:53:59 51°10.42 2°39.61 30.489193 0.573455 3.368096 0.162614
2003-09-23 07:54:03 51°10.42 2°39.59 30.489193 0.573455 3.368096 0.162614
2003-09-23 07:54:07 51°10.41 2°39.57 30.370532 0.573455 3.368256 0.162614
2003-09-23 07:54:13 51°10.41 2°39.53 30.254499 0.573455 3.368096 0.162614
2003-09-23 07:54:19 51°10.4 2°39.5 30.973911 0.573455 3.36831 0.162614
2003-09-23 07:54:23 51°10.4 2°39.47 30.635702 0.573455 3.368363 0.162614
2003-09-23 07:54:29 51°10.39 2°39.44 30.8055 0.57335 3.367762 0.162614
2003-09-23 07:54:33 51°10.39 2°39.42 30.8055 0.57335 3.367762 0.162614
2003-09-23 07:54:39 51°10.39 2°39.38 30.721243 0.57335 3.367976 0.196324
2003-09-23 07:54:43 51°10.38 2°39.36 31.06471 0.57335 3.367816 0.162614
2003-09-23 07:54:49 51°10.38 2°39.32 30.922858 0.573455 3.36847 0.162614
2003-09-23 07:54:51 51°10.38 2°39.31 30.782873 0.57335 3.368083 0.162614
2003-09-23 07:54:59 51°10.37 2°39.26 30.725786 0.57335 3.367869 0.196324
2003-09-23 07:55:03 51°10.37 2°39.24 30.725786 0.57335 3.367869 0.196324
2003-09-23 07:55:09 51°10.36 2°39.21 31.213244 0.57335 3.36803 0.196324
2003-09-23 07:55:13 51°10.36 2°39.18 30.673029 0.57335 3.36803 0.196324
2003-09-23 07:55:19 51°10.36 2°39.15 31.243972 0.57335 3.367923 0.196324
2003-09-23 07:55:23 51°10.35 2°39.12 31.98333 0.57335 3.36819 0.162614
2003-09-23 07:55:29 51°10.35 2°39.09 30.964365 0.57335 3.36803 0.196324
2003-09-23 07:55:33 51°10.34 2°39.07 30.964365 0.57335 3.36803 0.196324
2003-09-23 07:55:39 51°10.34 2°39.03 30.882759 0.57335 3.36819 0.162614
2003-09-23 07:55:43 51°10.34 2°39.01 31.59198 0.57335 3.368137 0.162614
2003-09-23 07:55:49 51°10.33 2°38.97 30.906438 0.57335 3.36819 0.196324
2003-09-23 07:55:53 51°10.33 2°38.95 30.598953 0.57335 3.368244 0.128905
2003-09-23 07:55:59 51°10.32 2°38.91 31.592602 0.57335 3.368244 0.196324
2003-09-23 07:56:03 51°10.32 2°38.89 31.592602 0.57335 3.368244 0.196324
2003-09-23 07:56:07 51°10.32 2°38.87 30.825189 0.57335 3.368297 0.196324
2003-09-23 07:56:13 51°10.31 2°38.83 31.744152 0.57335 3.368244 0.196324
2003-09-23 07:56:19 51°10.3 2°38.8 29.647022 0.57335 3.368351 0.162614
2003-09-23 07:56:23 51°10.3 2°38.77 30.39581 0.57335 3.368404 0.128905
2003-09-23 07:56:29 51°10.3 2°38.74 30.802882 0.57335 3.368511 0.196324
2003-09-23 07:56:33 51°10.29 2°38.72 30.802882 0.57335 3.368511 0.196324
2003-09-23 07:56:39 51°10.29 2°38.68 30.30934 0.57335 3.368297 0.162614
2003-09-23 07:56:43 51°10.28 2°38.66 30.609454 0.57335 3.368618 0.162614
2003-09-23 07:56:49 51°10.28 2°38.62 30.911807 0.57335 3.368404 0.162614
2003-09-23 07:56:53 51°10.28 2°38.6 30.49049 0.57335 3.368565 0.196324
2003-09-23 07:56:59 51°10.27 2°38.56 30.347073 0.57335 3.368618 0.196324
2003-09-23 07:57:03 51°10.27 2°38.54 30.347073 0.57335 3.368618 0.196324
2003-09-23 07:57:09 51°10.27 2°38.51 31.153351 0.57335 3.368618 0.196324
2003-09-23 07:57:13 51°10.26 2°38.48 30.267651 0.57335 3.368618 0.162614
2003-09-23 07:57:19 51°10.26 2°38.45 31.384189 0.573246 3.367963 0.162614
2003-09-23 07:57:23 51°10.25 2°38.42 31.769772 0.573246 3.36807 0.162614
2003-09-23 07:57:27 51°10.25 2°38.4 31.415714 0.57335 3.368725 0.162614
2003-09-23 07:57:31 51°10.25 2°38.38 31.415714 0.57335 3.368725 0.162614
2003-09-23 07:57:39 51°10.24 2°38.33 31.208799 0.573246 3.367963 0.162614
2003-09-23 07:57:43 51°10.24 2°38.31 31.299424 0.573246 3.368177 0.162614
2003-09-23 07:57:49 51°10.23 2°38.27 31.102279 0.573246 3.368124 0.196324
2003-09-23 07:57:53 51°10.23 2°38.25 30.989307 0.573246 3.368284 0.196324
2003-09-23 07:57:59 51°10.23 2°38.21 30.475484 0.573246 3.368284 0.196324
2003-09-23 07:58:03 51°10.22 2°38.19 30.475484 0.573246 3.368284 0.196324
2003-09-23 07:58:09 51°10.22 2°38.15 30.966316 0.573246 3.368445 0.162614
2003-09-23 07:58:13 51°10.21 2°38.13 30.968824 0.573246 3.368391 0.128905
2003-09-23 07:58:19 51°10.21 2°38.1 31.956956 0.573246 3.368552 0.196324
2003-09-23 07:58:23 51°10.21 2°38.07 31.250359 0.573246 3.368391 0.162614
2003-09-23 07:58:27 51°10.2 2°38.05 31.088193 0.573246 3.368606 0.196324
2003-09-23 07:58:31 51°10.2 2°38.03 31.088193 0.573246 3.368606 0.196324
2003-09-23 07:58:39 51°10.19 2°37.98 31.565505 0.573246 3.368445 0.162614
2003-09-23 07:58:43 51°10.19 2°37.96 30.915433 0.573246 3.368606 0.162614
2003-09-23 07:58:49 51°10.19 2°37.92 31.034885 0.573246 3.368606 0.162614
2003-09-23 07:58:53 51°10.18 2°37.9 31.79914 0.573246 3.368659 0.196324
2003-09-23 07:58:59 51°10.18 2°37.86 30.405497 0.573246 3.368552 0.162614
2003-09-23 07:59:03 51°10.18 2°37.84 30.405497 0.573246 3.368552 0.162614
2003-09-23 07:59:09 51°10.17 2°37.8 31.633954 0.573246 3.368606 0.162614
2003-09-23 07:59:13 51°10.17 2°37.78 31.547908 0.573246 3.368766 0.162614
2003-09-23 07:59:19 51°10.16 2°37.75 31.208556 0.573246 3.368766 0.162614
2003-09-23 07:59:23 51°10.16 2°37.72 30.117787 0.573246 3.36882 0.162614
2003-09-23 07:59:27 51°10.16 2°37.7 30.253585 0.573246 3.368873 0.162614
2003-09-23 07:59:31 51°10.15 2°37.68 30.253585 0.573246 3.368873 0.162614
2003-09-23 07:59:39 51°10.15 2°37.63 30.586033 0.573246 3.369034 0.162614
2003-09-23 07:59:43 51°10.14 2°37.61 30.552623 0.573246 3.36898 0.162614
2003-09-23 07:59:47 51°10.14 2°37.58 29.633479 0.573246 3.369034 0.196324
2003-09-23 07:59:53 51°10.14 2°37.55 29.487825 0.573246 3.369087 0.196324
2003-09-23 07:59:59 51°10.13 2°37.51 29.952658 0.573246 3.369194 0.162614
2003-09-23 08:00:03 51°10.13 2°37.49 29.952658 0.573246 3.369194 0.162614
2003-09-23 08:00:09 51°10.12 2°37.45 29.896958 0.573141 3.368539 0.196324
2003-09-23 08:00:13 51°10.12 2°37.43 29.171488 0.573141 3.368432 0.162614
2003-09-23 08:00:19 51°10.12 2°37.4 30.763872 0.573141 3.368754 0.162614
2003-09-23 08:00:23 51°10.11 2°37.37 29.84005 0.573141 3.368486 0.162614
2003-09-23 08:00:29 51°10.11 2°37.34 30.076415 0.573141 3.368861 0.162614
2003-09-23 08:00:33 51°10.11 2°37.31 30.076415 0.573141 3.368861 0.162614
2003-09-23 08:00:39 51°10.1 2°37.28 30.454407 0.573141 3.368807 0.162614
2003-09-23 08:00:43 51°10.1 2°37.26 31.164784 0.573141 3.368807 0.162614
2003-09-23 08:00:49 51°10.09 2°37.22 31.959879 0.573141 3.368968 0.162614
2003-09-23 08:00:53 51°10.09 2°37.2 30.879271 0.573141 3.368754 0.162614
2003-09-23 08:00:59 51°10.08 2°37.16 31.030359 0.573141 3.369021 0.162614
2003-09-23 08:01:03 51°10.08 2°37.14 31.030359 0.573141 3.369021 0.162614
2003-09-23 08:01:07 51°10.08 2°37.12 31.175312 0.573141 3.369075 0.162614
2003-09-23 08:01:13 51°10.07 2°37.08 31.969749 0.573141 3.369128 0.162614
2003-09-23 08:01:19 51°10.07 2°37.05 31.54165 0.573141 3.369021 0.162614
2003-09-23 08:01:23 51°10.07 2°37.03 31.09101 0.573141 3.369075 0.196324
2003-09-23 08:01:27 51°10.06 2°37 31.691989 0.573141 3.369075 0.162614
2003-09-23 08:01:33 51°10.06 2°36.97 31.691989 0.573141 3.369075 0.162614
2003-09-23 08:01:39 51°10.05 2°36.94 31.066902 0.573141 3.369021 0.162614
2003-09-23 08:01:43 51°10.05 2°36.91 31.637718 0.573141 3.369235 0.196324
2003-09-23 08:01:47 51°10.05 2°36.89 30.785108 0.573141 3.369182 0.162614
2003-09-23 08:01:53 51°10.04 2°36.86 30.809271 0.573141 3.369235 0.196324
2003-09-23 08:01:59 51°10.04 2°36.82 30.46079 0.573141 3.369503 0.162614
2003-09-23 08:02:03 51°10.04 2°36.8 30.46079 0.573141 3.369503 0.162614
2003-09-23 08:02:07 51°10.03 2°36.78 31.132321 0.573141 3.369289 0.196324
2003-09-23 08:02:13 51°10.03 2°36.74 29.542549 0.573141 3.369343 0.162614
2003-09-23 08:02:19 51°10.02 2°36.71 30.963215 0.573141 3.369396 0.162614
2003-09-23 08:02:23 51°10.02 2°36.69 30.38928 0.573141 3.369503 0.162614
2003-09-23 08:02:27 51°10.02 2°36.66 30.647109 0.573141 3.36945 0.196324
2003-09-23 08:02:33 51°10.02 2°36.63 30.647109 0.573141 3.36945 0.196324
2003-09-23 08:02:39 51°10.01 2°36.59 30.161848 0.573141 3.36945 0.162614
2003-09-23 08:02:43 51°10.01 2°36.57 30.743539 0.573141 3.369503 0.162614
2003-09-23 08:02:47 51°10.01 2°36.55 30.74001 0.573141 3.369664 0.162614
2003-09-23 08:02:53 51°10.01 2°36.51 30.483233 0.573141 3.36961 0.162614
2003-09-23 08:02:59 51°10.01 2°36.48 31.061787 0.573037 3.369009 0.196324
2003-09-23 08:03:03 51°10.01 2°36.45 31.061787 0.573037 3.369009 0.196324
2003-09-23 08:03:09 51°10.01 2°36.42 30.856352 0.573141 3.369664 0.128905
2003-09-23 08:03:13 51°10.01 2°36.4 30.94642 0.573037 3.369116 0.196324
2003-09-23 08:03:19 51°10.01 2°36.36 30.576334 0.573037 3.368955 0.162614
2003-09-23 08:03:23 51°10.01 2°36.34 30.743154 0.573037 3.369062 0.162614
2003-09-23 08:03:29 51°10.01 2°36.3 30.71981 0.573037 3.36917 0.196324
2003-09-23 08:03:33 51°10.02 2°36.28 30.71981 0.573037 3.36917 0.196324
2003-09-23 08:03:39 51°10.02 2°36.25 29.769262 0.573037 3.369223 0.128905
2003-09-23 08:03:43 51°10.03 2°36.23 31.123004 0.573037 3.369384 0.196324
2003-09-23 08:03:49 51°10.03 2°36.19 31.238383 0.573037 3.369384 0.196324
2003-09-23 08:03:53 51°10.04 2°36.17 31.608772 0.573037 3.369491 0.162614
2003-09-23 08:03:59 51°10.05 2°36.14 31.013509 0.573037 3.369491 0.162614
2003-09-23 08:04:03 51°10.05 2°36.12 31.013509 0.573037 3.369491 0.162614
2003-09-23 08:04:09 51°10.06 2°36.09 31.498553 0.573037 3.369384 0.162614
2003-09-23 08:04:13 51°10.07 2°36.07 31.1302 0.573037 3.369491 0.196324
2003-09-23 08:04:19 51°10.08 2°36.04 31.382873 0.573037 3.369384 0.196324
2003-09-23 08:04:23 51°10.09 2°36.02 30.756606 0.573037 3.369437 0.162614
2003-09-23 08:04:27 51°10.09 2°36 30.736026 0.573037 3.369437 0.196324
2003-09-23 08:04:33 51°10.11 2°35.97 30.736026 0.573037 3.369437 0.196324
2003-09-23 08:04:39 51°10.12 2°35.94 30.931921 0.573037 3.369545 0.196324
2003-09-23 08:04:43 51°10.13 2°35.93 30.794432 0.573037 3.369652 0.196324
2003-09-23 08:04:49 51°10.14 2°35.9 30.678065 0.573037 3.369759 0.196324
2003-09-23 08:04:53 51°10.15 2°35.89 31.055697 0.573037 3.369705 0.162614
2003-09-23 08:04:59 51°10.17 2°35.86 30.251193 0.573037 3.369973 0.162614
2003-09-23 08:05:03 51°10.18 2°35.85 30.251193 0.573037 3.369973 0.162614
2003-09-23 08:05:09 51°10.2 2°35.83 31.026252 0.573037 3.369866 0.162614
2003-09-23 08:05:13 51°10.21 2°35.81 30.798866 0.573037 3.36992 0.196324
2003-09-23 08:05:19 51°10.22 2°35.8 31.68167 0.573037 3.369866 0.162614
2003-09-23 08:05:23 51°10.24 2°35.78 30.139592 0.572933 3.369104 0.162614
2003-09-23 08:05:29 51°10.25 2°35.76 30.345071 0.572933 3.369211 0.196324
2003-09-23 08:05:33 51°10.27 2°35.75 30.345071 0.572933 3.369211 0.196324
2003-09-23 08:05:39 51°10.28 2°35.74 30.780673 0.572933 3.369425 0.162614
2003-09-23 08:05:43 51°10.3 2°35.72 30.95095 0.572933 3.369425 0.162614
2003-09-23 08:05:49 51°10.32 2°35.71 30.892699 0.572933 3.369532 0.162614
2003-09-23 08:05:53 51°10.33 2°35.7 29.365093 0.572933 3.369586 0.162614
2003-09-23 08:05:59 51°10.35 2°35.69 31.351473 0.572933 3.369639 0.162614
2003-09-23 08:06:03 51°10.36 2°35.69 31.351473 0.572933 3.369639 0.162614
2003-09-23 08:06:07 51°10.38 2°35.68 31.124777 0.572933 3.369639 0.162614
2003-09-23 08:06:11 51°10.39 2°35.68 31.037704 0.572933 3.369854 0.162614
2003-09-23 08:06:19 51°10.42 2°35.68 30.529114 0.572933 3.3698 0.162614
2003-09-23 08:06:23 51°10.43 2°35.67 31.671452 0.572933 3.369747 0.196324
2003-09-23 08:06:29 51°10.45 2°35.67 30.643365 0.572933 3.370015 0.196324
2003-09-23 08:06:33 51°10.47 2°35.67 30.643365 0.572933 3.370015 0.196324
2003-09-23 08:06:39 51°10.49 2°35.67 30.735222 0.572933 3.3698 0.196324
2003-09-23 08:06:43 51°10.5 2°35.67 30.78633 0.572933 3.3698 0.162614
2003-09-23 08:06:47 51°10.52 2°35.67 31.079705 0.572933 3.369747 0.162614
2003-09-23 08:06:53 51°10.54 2°35.68 30.653231 0.572933 3.369961 0.196324
2003-09-23 08:06:59 51°10.56 2°35.68 30.72666 0.572933 3.370015 0.162614
2003-09-23 08:07:03 51°10.57 2°35.69 30.72666 0.572933 3.370015 0.162614
2003-09-23 08:07:09 51°10.59 2°35.69 30.795619 0.572933 3.370122 0.196324
2003-09-23 08:07:13 51°10.61 2°35.7 30.71212 0.572933 3.370283 0.162614
2003-09-23 08:07:19 51°10.63 2°35.7 30.083253 0.572933 3.370497 0.162614
2003-09-23 08:07:23 51°10.64 2°35.71 31.245916 0.572933 3.37039 0.196324
2003-09-23 08:07:29 51°10.66 2°35.72 30.861271 0.572933 3.370497 0.162614
2003-09-23 08:07:33 51°10.68 2°35.72 30.861271 0.572933 3.370497 0.162614
2003-09-23 08:07:39 51°10.7 2°35.73 30.434061 0.572933 3.370444 0.162614
2003-09-23 08:07:43 51°10.71 2°35.73 30.458195 0.572828 3.369627 0.196324
2003-09-23 08:07:49 51°10.73 2°35.74 29.886852 0.572933 3.370336 0.162614
2003-09-23 08:07:53 51°10.75 2°35.74 30.666139 0.572828 3.369681 0.162614
2003-09-23 08:07:59 51°10.77 2°35.75 31.151474 0.572828 3.369842 0.196324
2003-09-23 08:08:03 51°10.78 2°35.75 31.151474 0.572828 3.369842 0.196324
2003-09-23 08:08:09 51°10.8 2°35.76 31.355459 0.572933 3.370658 0.162614
2003-09-23 08:08:13 51°10.81 2°35.77 31.523978 0.572828 3.369734 0.162614
2003-09-23 08:08:19 51°10.83 2°35.77 31.301401 0.572828 3.369895 0.162614
2003-09-23 08:08:23 51°10.85 2°35.78 30.837614 0.572828 3.369949 0.162614
2003-09-23 08:08:27 51°10.86 2°35.78 31.298071 0.572828 3.369842 0.196324
2003-09-23 08:08:33 51°10.88 2°35.79 31.298071 0.572828 3.369842 0.196324
2003-09-23 08:08:39 51°10.9 2°35.8 30.445357 0.572828 3.369949 0.196324
2003-09-23 08:08:43 51°10.92 2°35.8 30.880527 0.572828 3.370056 0.162614
2003-09-23 08:08:47 51°10.93 2°35.8 31.125577 0.572933 3.370551 0.196324
2003-09-23 08:08:53 51°10.95 2°35.81 31.393336 0.572828 3.37011 0.196324
2003-09-23 08:08:59 51°10.97 2°35.82 30.649033 0.572828 3.37011 0.162614
2003-09-23 08:09:03 51°10.98 2°35.83 30.649033 0.572828 3.37011 0.162614
2003-09-23 08:09:07 51°11 2°35.84 31.075982 0.572828 3.370217 0.162614
2003-09-23 08:09:13 51°11.01 2°35.86 31.615233 0.572828 3.370003 0.196324
2003-09-23 08:09:19 51°11.03 2°35.87 30.652496 0.572828 3.370163 0.162614
2003-09-23 08:09:23 51°11.04 2°35.89 30.8754 0.572828 3.370217 0.162614
2003-09-23 08:09:27 51°11.06 2°35.9 31.363015 0.572828 3.370271 0.162614
2003-09-23 08:09:33 51°11.07 2°35.93 31.363015 0.572828 3.370271 0.162614
2003-09-23 08:09:39 51°11.09 2°35.95 31.648527 0.572828 3.370324 0.162614
2003-09-23 08:09:43 51°11.09 2°35.97 31.110834 0.572828 3.370324 0.162614
2003-09-23 08:09:47 51°11.1 2°35.99 30.602663 0.572828 3.370432 0.162614
2003-09-23 08:09:53 51°11.12 2°36.02 30.716 0.572828 3.370378 0.196324
2003-09-23 08:09:59 51°11.13 2°36.05 29.925502 0.572828 3.370432 0.196324
2003-09-23 08:10:03 51°11.13 2°36.07 29.925502 0.572828 3.370432 0.196324
2003-09-23 08:10:09 51°11.15 2°36.1 30.977115 0.572828 3.3707 0.162614
2003-09-23 08:10:13 51°11.15 2°36.12 30.917629 0.572828 3.370646 0.196324
2003-09-23 08:10:19 51°11.16 2°36.15 30.693905 0.572828 3.370807 0.196324
2003-09-23 08:10:23 51°11.17 2°36.17 31.946603 0.572724 3.370098 0.162614
2003-09-23 08:10:29 51°11.18 2°36.2 30.780673 0.572828 3.370861 0.230033
2003-09-23 08:10:33 51°11.18 2°36.22 30.780673 0.572828 3.370861 0.230033
2003-09-23 08:10:39 51°11.19 2°36.26 30.610994 0.572724 3.370098 0.196324
2003-09-23 08:10:43 51°11.2 2°36.28 30.609734 0.572828 3.370914 0.196324
2003-09-23 08:10:47 51°11.21 2°36.3 31.330151 0.572724 3.37042 0.196324
2003-09-23 08:10:53 51°11.22 2°36.33 30.5029 0.572724 3.37042 0.196324
2003-09-23 08:10:59 51°11.23 2°36.36 31.162421 0.572828 3.371075 0.196324
2003-09-23 08:11:03 51°11.24 2°36.38 31.162421 0.572828 3.371075 0.196324
2003-09-23 08:11:07 51°11.25 2°36.4 30.876481 0.572724 3.37042 0.162614
2003-09-23 08:11:13 51°11.26 2°36.42 31.076922 0.572724 3.370366 0.162614
2003-09-23 08:11:19 51°11.28 2°36.45 30.675337 0.572724 3.370366 0.196324
2003-09-23 08:11:23 51°11.28 2°36.47 30.99063 0.572724 3.370634 0.196324
2003-09-23 08:11:27 51°11.29 2°36.49 30.90588 0.572724 3.370366 0.196324
2003-09-23 08:11:33 51°11.3 2°36.52 30.90588 0.572724 3.370366 0.196324
2003-09-23 08:11:39 51°11.32 2°36.55 31.44553 0.572724 3.370581 0.196324
2003-09-23 08:11:43 51°11.32 2°36.57 30.479516 0.572724 3.370634 0.196324
2003-09-23 08:11:47 51°11.33 2°36.59 30.566563 0.572724 3.370795 0.196324
2003-09-23 08:11:53 51°11.35 2°36.62 30.584318 0.572724 3.370634 0.196324
2003-09-23 08:11:59 51°11.36 2°36.65 31.430156 0.572724 3.370688 0.230033
2003-09-23 08:12:03 51°11.37 2°36.67 31.430156 0.572724 3.370688 0.230033
2003-09-23 08:12:09 51°11.38 2°36.7 29.852248 0.572724 3.370849 0.196324
2003-09-23 08:12:13 51°11.39 2°36.72 31.172498 0.572724 3.370849 0.196324
2003-09-23 08:12:19 51°11.4 2°36.75 31.518444 0.572724 3.370903 0.230033
2003-09-23 08:12:23 51°11.41 2°36.77 31.229217 0.57262 3.370247 0.196324
2003-09-23 08:12:27 51°11.42 2°36.79 31.338195 0.57262 3.370086 0.162614
2003-09-23 08:12:31 51°11.42 2°36.81 31.338195 0.57262 3.370086 0.162614
2003-09-23 08:12:39 51°11.44 2°36.85 30.952065 0.572724 3.371171 0.196324
2003-09-23 08:12:43 51°11.45 2°36.87 31.056602 0.57262 3.370247 0.230033
2003-09-23 08:12:47 51°11.46 2°36.89 30.466507 0.572724 3.370956 0.196324
2003-09-23 08:12:53 51°11.47 2°36.91 31.571935 0.57262 3.370247 0.196324
2003-09-23 08:12:59 51°11.48 2°36.94 31.94361 0.57262 3.3703 0.196324
2003-09-23 08:13:03 51°11.49 2°36.96 31.94361 0.57262 3.3703 0.196324
2003-09-23 08:13:09 51°11.5 2°36.99 30.382294 0.572724 3.370956 0.196324
2003-09-23 08:13:13 51°11.51 2°37.01 30.783676 0.57262 3.370354 0.230033
2003-09-23 08:13:19 51°11.52 2°37.04 31.320442 0.57262 3.370247 0.196324
2003-09-23 08:13:23 51°11.53 2°37.06 30.53395 0.57262 3.370676 0.230033
2003-09-23 08:13:29 51°11.54 2°37.09 30.578995 0.57262 3.370408 0.196324
2003-09-23 08:13:33 51°11.55 2°37.11 30.578995 0.57262 3.370408 0.196324
2003-09-23 08:13:39 51°11.56 2°37.14 30.735397 0.57262 3.370622 0.230033
2003-09-23 08:13:43 51°11.57 2°37.16 29.697345 0.57262 3.370676 0.230033
2003-09-23 08:13:47 51°11.58 2°37.18 29.97031 0.57262 3.370569 0.196324
2003-09-23 08:13:53 51°11.59 2°37.21 29.78685 0.57262 3.370837 0.230033
2003-09-23 08:13:59 51°11.6 2°37.24 29.196598 0.57262 3.370569 0.196324
2003-09-23 08:14:03 51°11.61 2°37.26 29.196598 0.57262 3.370569 0.196324
2003-09-23 08:14:09 51°11.62 2°37.28 29.381744 0.57262 3.370944 0.196324
2003-09-23 08:14:13 51°11.63 2°37.3 29.78961 0.57262 3.370783 0.230033
2003-09-23 08:14:19 51°11.64 2°37.33 30.170755 0.57262 3.370891 0.230033
2003-09-23 08:14:23 51°11.65 2°37.35 29.5292 0.57262 3.370944 0.196324
2003-09-23 08:14:27 51°11.66 2°37.37 29.909748 0.57262 3.370891 0.230033
2003-09-23 08:14:31 51°11.66 2°37.39 29.909748 0.57262 3.370891 0.230033
2003-09-23 08:14:39 51°11.68 2°37.43 29.822015 0.57262 3.370998 0.230033
2003-09-23 08:14:43 51°11.69 2°37.45 29.931118 0.57262 3.370891 0.230033
2003-09-23 08:14:47 51°11.7 2°37.47 29.500116 0.57262 3.370837 0.196324
2003-09-23 08:14:53 51°11.71 2°37.5 30.786261 0.57262 3.370998 0.196324
2003-09-23 08:14:59 51°11.72 2°37.53 31.826257 0.57262 3.371052 0.196324
2003-09-23 08:15:03 51°11.73 2°37.55 31.826257 0.57262 3.371052 0.196324
2003-09-23 08:15:09 51°11.74 2°37.58 30.596537 0.572515 3.370288 0.196324
2003-09-23 08:15:13 51°11.75 2°37.6 30.808782 0.572515 3.370664 0.230033
2003-09-23 08:15:19 51°11.76 2°37.63 30.837649 0.572515 3.370718 0.196324
2003-09-23 08:15:23 51°11.77 2°37.65 31.093549 0.57262 3.371374 0.230033
2003-09-23 08:15:27 51°11.78 2°37.67 30.9261 0.572515 3.370772 0.230033
2003-09-23 08:15:33 51°11.79 2°37.7 30.9261 0.572515 3.370772 0.230033
2003-09-23 08:15:39 51°11.8 2°37.73 30.380363 0.57262 3.371535 0.230033
2003-09-23 08:15:43 51°11.81 2°37.75 31.324534 0.572515 3.370825 0.230033
2003-09-23 08:15:49 51°11.82 2°37.78 31.489557 0.572515 3.370718 0.196324
2003-09-23 08:15:53 51°11.83 2°37.8 31.369496 0.572515 3.370772 0.230033
2003-09-23 08:15:59 51°11.84 2°37.83 31.206159 0.572515 3.370825 0.230033
2003-09-23 08:16:03 51°11.85 2°37.84 31.206159 0.572515 3.370825 0.230033
2003-09-23 08:16:07 51°11.86 2°37.86 30.610679 0.57262 3.371642 0.196324
2003-09-23 08:16:11 51°11.87 2°37.88 30.447041 0.572515 3.370986 0.230033
2003-09-23 08:16:19 51°11.89 2°37.92 31.194315 0.572515 3.370986 0.230033
2003-09-23 08:16:23 51°11.9 2°37.94 30.504933 0.572515 3.370986 0.196324
2003-09-23 08:16:29 51°11.91 2°37.97 30.49652 0.572515 3.370825 0.230033
2003-09-23 08:16:33 51°11.92 2°37.99 30.49652 0.572515 3.370825 0.230033
2003-09-23 08:16:39 51°11.93 2°38.02 30.932723 0.572515 3.370772 0.196324
2003-09-23 08:16:43 51°11.94 2°38.04 31.142923 0.572515 3.371201 0.230033
2003-09-23 08:16:49 51°11.95 2°38.07 30.578785 0.572515 3.370933 0.196324
2003-09-23 08:16:53 51°11.96 2°38.09 30.681002 0.572515 3.371147 0.230033
2003-09-23 08:16:59 51°11.97 2°38.12 30.540432 0.572515 3.371147 0.230033
2003-09-23 08:17:03 51°11.98 2°38.14 30.540432 0.572515 3.371147 0.230033
2003-09-23 08:17:09 51°11.99 2°38.17 30.19536 0.572515 3.371147 0.230033
2003-09-23 08:17:13 51°12 2°38.19 31.084471 0.572515 3.371201 0.230033
2003-09-23 08:17:19 51°12.01 2°38.22 30.999093 0.572515 3.371147 0.230033
2003-09-23 08:17:23 51°12.02 2°38.24 30.924741 0.572515 3.371201 0.196324
2003-09-23 08:17:29 51°12.03 2°38.27 31.17288 0.572515 3.371362 0.196324
2003-09-23 08:17:33 51°12.04 2°38.29 31.17288 0.572515 3.371362 0.196324
2003-09-23 08:17:39 51°12.05 2°38.32 31.459966 0.572411 3.370652 0.230033
2003-09-23 08:17:43 51°12.06 2°38.34 30.318125 0.572515 3.37147 0.230033
2003-09-23 08:17:49 51°12.07 2°38.37 31.742186 0.572411 3.370652 0.230033
2003-09-23 08:17:53 51°12.08 2°38.39 31.488726 0.572411 3.37076 0.230033
2003-09-23 08:17:59 51°12.09 2°38.42 30.948511 0.572411 3.370867 0.230033
2003-09-23 08:18:03 51°12.1 2°38.44 30.948511 0.572411 3.370867 0.230033
2003-09-23 08:18:07 51°12.11 2°38.46 31.767979 0.572411 3.370813 0.196324
2003-09-23 08:18:11 51°12.11 2°38.48 30.636017 0.572411 3.37076 0.263742
2003-09-23 08:18:19 51°12.13 2°38.52 30.720683 0.572411 3.37076 0.297452
2003-09-23 08:18:23 51°12.14 2°38.54 31.354003 0.572411 3.370813 0.263742
2003-09-23 08:18:29 51°12.15 2°38.57 30.702681 0.572411 3.371028 0.297452
2003-09-23 08:18:33 51°12.16 2°38.59 30.702681 0.572411 3.371028 0.297452
2003-09-23 08:18:39 51°12.17 2°38.62 30.701248 0.572411 3.370921 0.263742
2003-09-23 08:18:43 51°12.18 2°38.64 30.36214 0.572411 3.371136 0.297452
2003-09-23 08:18:49 51°12.19 2°38.67 30.799355 0.572411 3.371028 0.263742
2003-09-23 08:18:53 51°12.2 2°38.69 30.040946 0.572411 3.370975 0.297452
2003-09-23 08:18:59 51°12.21 2°38.72 31.416372 0.572411 3.371082 0.297452
2003-09-23 08:19:03 51°12.22 2°38.74 31.416372 0.572411 3.371082 0.297452
2003-09-23 08:19:09 51°12.23 2°38.77 31.134233 0.572411 3.370921 0.263742
2003-09-23 08:19:13 51°12.24 2°38.79 30.58922 0.572411 3.370921 0.297452
2003-09-23 08:19:19 51°12.25 2°38.82 30.762091 0.572411 3.370975 0.297452
2003-09-23 08:19:23 51°12.26 2°38.84 31.004839 0.572411 3.371082 0.297452
2003-09-23 08:19:29 51°12.27 2°38.87 30.877562 0.572411 3.371082 0.297452
2003-09-23 08:19:33 51°12.28 2°38.89 30.877562 0.572411 3.371082 0.297452
2003-09-23 08:19:39 51°12.29 2°38.92 31.505956 0.572411 3.371136 0.297452
2003-09-23 08:19:43 51°12.3 2°38.94 31.367798 0.572411 3.371189 0.263742
2003-09-23 08:19:49 51°12.31 2°38.96 32.217276 0.572411 3.371297 0.297452
2003-09-23 08:19:53 51°12.32 2°38.98 31.082349 0.572411 3.371297 0.297452
2003-09-23 08:19:59 51°12.34 2°39.01 30.690129 0.572411 3.371243 0.297452
2003-09-23 08:20:03 51°12.34 2°39.03 30.690129 0.572411 3.371243 0.297452
2003-09-23 08:20:09 51°12.36 2°39.06 31.031334 0.572307 3.370694 0.263742
2003-09-23 08:20:13 51°12.36 2°39.08 30.743154 0.572411 3.371297 0.263742
2003-09-23 08:20:19 51°12.38 2°39.11 31.207097 0.572411 3.371619 0.297452
2003-09-23 08:20:23 51°12.39 2°39.13 31.004769 0.572307 3.370855 0.263742
2003-09-23 08:20:29 51°12.4 2°39.16 31.291514 0.572307 3.370802 0.263742
2003-09-23 08:20:33 51°12.41 2°39.18 31.291514 0.572307 3.370802 0.263742
2003-09-23 08:20:39 51°12.42 2°39.21 31.122656 0.572307 3.370963 0.297452
2003-09-23 08:20:43 51°12.43 2°39.24 31.578675 0.572307 3.370963 0.263742
2003-09-23 08:20:49 51°12.44 2°39.26 30.956525 0.572307 3.371178 0.297452
2003-09-23 08:20:53 51°12.45 2°39.28 31.68167 0.572307 3.370963 0.263742
2003-09-23 08:20:59 51°12.46 2°39.31 31.444249 0.572307 3.371124 0.297452
2003-09-23 08:21:03 51°12.47 2°39.33 31.444249 0.572307 3.371124 0.297452
2003-09-23 08:21:07 51°12.48 2°39.35 31.577292 0.572307 3.370963 0.263742
2003-09-23 08:21:13 51°12.49 2°39.38 30.677225 0.572307 3.371232 0.297452
2003-09-23 08:21:19 51°12.5 2°39.41 31.692472 0.572307 3.371124 0.263742
2003-09-23 08:21:23 51°12.51 2°39.43 30.701387 0.572307 3.371124 0.263742
2003-09-23 08:21:29 51°12.52 2°39.46 30.30558 0.572307 3.371232 0.297452
2003-09-23 08:21:33 51°12.53 2°39.48 30.30558 0.572307 3.371232 0.297452
2003-09-23 08:21:39 51°12.54 2°39.51 30.820197 0.572307 3.371285 0.297452
2003-09-23 08:21:43 51°12.55 2°39.53 30.477342 0.572307 3.371339 0.297452
2003-09-23 08:21:47 51°12.56 2°39.55 31.276283 0.572307 3.371232 0.263742
2003-09-23 08:21:53 51°12.57 2°39.58 31.590598 0.572307 3.371232 0.263742
2003-09-23 08:21:59 51°12.58 2°39.61 31.195913 0.572307 3.3715 0.297452
2003-09-23 08:22:03 51°12.59 2°39.63 31.195913 0.572307 3.3715 0.297452
2003-09-23 08:22:09 51°12.6 2°39.66 30.563236 0.572307 3.371446 0.263742
2003-09-23 08:22:13 51°12.61 2°39.68 32.017737 0.572307 3.3715 0.297452
2003-09-23 08:22:19 51°12.62 2°39.71 30.135893 0.572307 3.371554 0.297452
2003-09-23 08:22:23 51°12.63 2°39.73 31.390669 0.572307 3.371339 0.263742
2003-09-23 08:22:29 51°12.64 2°39.76 31.372893 0.572307 3.371446 0.297452
2003-09-23 08:22:33 51°12.65 2°39.78 31.372893 0.572307 3.371446 0.297452
2003-09-23 08:22:39 51°12.67 2°39.81 31.478172 0.572307 3.371285 0.263742